Wetterdaten: Samstag, 19.08.2017
Datum Zeit Temp. Aussen Temp. o. S. +5cm Feuchte Auss BlattFeu 1 Luftdruck Regen Sonnenschein Regendauer Solar Windben Empfang
19.08.2017 00:00 14,2 C 12,8 C 12,2 C 94 % 15 lf 1012,9 hPa 0,0 l/m 0 min 0 min 0 W/m 12,6 km/h (3 Bft) 89,36 %
19.08.2017 00:02 14,2 C 12,8 C 12,2 C 94 % 15 lf 1012,9 hPa 0,0 l/m 0 min 0 min 0 W/m 6,3 km/h (2 Bft) 11,76 %
19.08.2017 00:04 14,1 C 12,8 C 12,2 C 94 % 15 lf 1012,9 hPa 0,0 l/m 0 min 0 min 4 W/m 10,5 km/h (2 Bft) 81,82 %
19.08.2017 00:08 14,1 C 12,8 C 12,2 C 94 % 15 lf 1013,1 hPa 0,0 l/m 0 min 0 min 5 W/m 14,6 km/h (3 Bft) 92,55 %
19.08.2017 00:10 14,0 C 12,8 C 12,2 C 94 % 15 lf 1013,1 hPa 0,0 l/m 0 min 0 min 5 W/m 14,6 km/h (3 Bft) 95,74 %
19.08.2017 00:12 14,0 C 12,8 C 12,2 C 94 % 15 lf 1013,1 hPa 0,0 l/m 0 min 0 min 5 W/m 16,7 km/h (3 Bft) 97,62 %
19.08.2017 00:14 13,9 C 12,8 C 12,2 C 94 % 15 lf 1013,2 hPa 0,0 l/m 0 min 0 min 5 W/m 14,6 km/h (3 Bft) 93,62 %
19.08.2017 00:16 13,9 C 12,8 C 12,2 C 94 % 15 lf 1013,2 hPa 0,0 l/m 0 min 0 min 0 W/m 14,6 km/h (3 Bft) 95,74 %
19.08.2017 00:18 13,9 C 12,8 C 12,2 C 94 % 15 lf 1013,2 hPa 0,0 l/m 0 min 0 min 0 W/m 12,6 km/h (3 Bft) 95,65 %
19.08.2017 00:20 13,9 C 12,8 C 12,2 C 94 % 15 lf 1013,2 hPa 0,0 l/m 0 min 0 min 0 W/m 12,6 km/h (3 Bft) 97,87 %
19.08.2017 00:22 13,9 C 12,8 C 12,2 C 94 % 15 lf 1013,2 hPa 0,0 l/m 0 min 0 min 0 W/m 16,7 km/h (3 Bft) 97,87 %
19.08.2017 00:24 13,8 C 12,8 C 12,2 C 94 % 15 lf 1013,2 hPa 0,0 l/m 0 min 0 min 0 W/m 14,6 km/h (3 Bft) 97,87 %
19.08.2017 00:26 13,8 C 12,8 C 11,7 C 94 % 15 lf 1013,2 hPa 0,0 l/m 0 min 0 min 0 W/m 8,4 km/h (2 Bft) 97,87 %
19.08.2017 00:28 13,8 C 12,8 C 11,7 C 94 % 15 lf 1013,1 hPa 0,0 l/m 0 min 0 min 0 W/m 10,5 km/h (2 Bft) 97,87 %
19.08.2017 00:30 13,8 C 12,8 C 11,7 C 94 % 15 lf 1013,2 hPa 0,0 l/m 0 min 0 min 0 W/m 10,5 km/h (2 Bft) 97,83 %
19.08.2017 00:32 13,8 C 12,8 C 11,7 C 94 % 15 lf 1013,2 hPa 0,0 l/m 0 min 0 min 0 W/m 10,5 km/h (2 Bft) 97,92 %
19.08.2017 00:34 13,7 C 12,8 C 11,7 C 94 % 15 lf 1013,2 hPa 0,0 l/m 0 min 0 min 0 W/m 10,5 km/h (2 Bft) 95,74 %
19.08.2017 00:36 13,7 C 12,8 C 11,7 C 94 % 15 lf 1013,2 hPa 0,0 l/m 0 min 0 min 0 W/m 16,7 km/h (3 Bft) 93,62 %
19.08.2017 00:38 13,7 C 12,8 C 11,7 C 94 % 15 lf 1013,2 hPa 0,0 l/m 0 min 0 min 2 W/m 16,7 km/h (3 Bft) 95,74 %
19.08.2017 00:40 13,7 C 12,8 C 11,7 C 94 % 15 lf 1013,3 hPa 0,0 l/m 0 min 0 min 5 W/m 14,6 km/h (3 Bft) 97,87 %
19.08.2017 00:42 13,7 C 12,8 C 11,7 C 94 % 15 lf 1013,3 hPa 0,0 l/m 0 min 0 min 5 W/m 10,5 km/h (2 Bft) 95,65 %
19.08.2017 00:44 13,7 C 12,8 C 11,7 C 94 % 15 lf 1013,2 hPa 0,0 l/m 0 min 0 min 5 W/m 14,6 km/h (3 Bft) 100,00 %
19.08.2017 00:46 13,7 C 12,8 C 11,7 C 94 % 15 lf 1013,2 hPa 0,0 l/m 0 min 0 min 5 W/m 10,5 km/h (2 Bft) 100,00 %
19.08.2017 00:48 13,7 C 12,8 C 11,7 C 94 % 15 lf 1013,3 hPa 0,0 l/m 0 min 0 min 5 W/m 12,6 km/h (3 Bft) 97,87 %
19.08.2017 00:50 13,7 C 12,8 C 11,7 C 94 % 15 lf 1013,4 hPa 0,0 l/m 0 min 0 min 5 W/m 12,6 km/h (3 Bft) 93,62 %
19.08.2017 00:52 13,6 C 12,8 C 11,7 C 94 % 15 lf 1013,3 hPa 0,0 l/m 0 min 0 min 0 W/m 12,6 km/h (3 Bft) 97,83 %
19.08.2017 00:54 13,6 C 12,8 C 11,7 C 94 % 15 lf 1013,3 hPa 0,0 l/m 0 min 0 min 0 W/m 8,4 km/h (2 Bft) 100,00 %
19.08.2017 00:56 13,6 C 12,8 C 11,7 C 94 % 15 lf 1013,3 hPa 0,0 l/m 0 min 0 min 0 W/m 10,5 km/h (2 Bft) 100,00 %
19.08.2017 00:58 13,6 C 12,8 C 11,7 C 94 % 15 lf 1013,3 hPa 0,0 l/m 0 min 0 min 0 W/m 10,5 km/h (2 Bft) 100,00 %
19.08.2017 01:00 13,6 C 12,2 C 11,7 C 94 % 15 lf 1013,3 hPa 0,0 l/m 0 min 0 min 0 W/m 8,4 km/h (2 Bft) 91,49 %
19.08.2017 01:02 13,6 C 12,8 C 11,7 C 94 % 15 lf 1013,3 hPa 0,0 l/m 0 min 0 min 0 W/m 14,6 km/h (3 Bft) 97,87 %
19.08.2017 01:04 13,6 C 12,2 C 11,7 C 94 % 15 lf 1013,3 hPa 0,0 l/m 0 min 0 min 0 W/m 8,4 km/h (2 Bft) 97,83 %
19.08.2017 01:06 13,6 C 12,2 C 11,7 C 94 % 15 lf 1013,3 hPa 0,0 l/m 0 min 0 min 0 W/m 8,4 km/h (2 Bft) 95,74 %
19.08.2017 01:08 13,5 C 12,2 C 11,7 C 94 % 15 lf 1013,4 hPa 0,0 l/m 0 min 0 min 0 W/m 8,4 km/h (2 Bft) 95,74 %
19.08.2017 01:10 13,5 C 12,2 C 11,7 C 94 % 15 lf 1013,4 hPa 0,0 l/m 0 min 0 min 0 W/m 8,4 km/h (2 Bft) 97,87 %
19.08.2017 01:12 13,5 C 12,2 C 11,7 C 94 % 15 lf 1013,4 hPa 0,0 l/m 0 min 0 min 4 W/m 10,5 km/h (2 Bft) 97,92 %
19.08.2017 01:14 13,4 C 12,2 C 11,7 C 94 % 15 lf 1013,4 hPa 0,0 l/m 0 min 0 min 0 W/m 10,5 km/h (2 Bft) 97,87 %
19.08.2017 01:16 13,4 C 12,8 C 11,7 C 94 % 15 lf 1013,4 hPa 0,0 l/m 0 min 0 min 0 W/m 12,6 km/h (3 Bft) 97,83 %
19.08.2017 01:18 13,4 C 12,2 C 11,7 C 94 % 15 lf 1013,3 hPa 0,0 l/m 0 min 0 min 0 W/m 10,5 km/h (2 Bft) 95,74 %
19.08.2017 01:20 13,4 C 12,2 C 11,7 C 94 % 15 lf 1013,4 hPa 0,0 l/m 0 min 0 min 0 W/m 8,4 km/h (2 Bft) 95,74 %
19.08.2017 01:22 13,4 C 12,2 C 11,7 C 94 % 15 lf 1013,4 hPa 0,0 l/m 0 min 0 min 0 W/m 8,4 km/h (2 Bft) 93,62 %
19.08.2017 01:24 13,4 C 12,2 C 11,7 C 94 % 15 lf 1013,4 hPa 0,0 l/m 0 min 0 min 0 W/m 12,6 km/h (3 Bft) 97,87 %
19.08.2017 01:26 13,3 C 12,2 C 11,7 C 94 % 15 lf 1013,5 hPa 0,0 l/m 0 min 0 min 0 W/m 10,5 km/h (2 Bft) 93,62 %
19.08.2017 01:28 13,3 C 12,2 C 11,1 C 94 % 15 lf 1013,6 hPa 0,0 l/m 0 min 0 min 0 W/m 8,4 km/h (2 Bft) 97,83 %
19.08.2017 01:30 13,3 C 12,2 C 11,1 C 94 % 15 lf 1013,5 hPa 0,0 l/m 0 min 0 min 0 W/m 12,6 km/h (3 Bft) 95,74 %
19.08.2017 01:32 13,3 C 12,2 C 11,1 C 94 % 15 lf 1013,6 hPa 0,0 l/m 0 min 0 min 0 W/m 10,5 km/h (2 Bft) 95,83 %
19.08.2017 01:34 13,3 C 12,2 C 11,7 C 94 % 15 lf 1013,6 hPa 0,0 l/m 0 min 0 min 0 W/m 12,6 km/h (3 Bft) 95,74 %
19.08.2017 01:36 13,2 C 12,2 C 11,7 C 94 % 15 lf 1013,6 hPa 0,0 l/m 0 min 0 min 0 W/m 14,6 km/h (3 Bft) 95,74 %
19.08.2017 01:38 13,2 C 12,2 C 11,7 C 94 % 15 lf 1013,6 hPa 0,0 l/m 0 min 0 min 0 W/m 14,6 km/h (3 Bft) 95,74 %
19.08.2017 01:40 13,2 C 12,2 C 11,7 C 94 % 15 lf 1013,6 hPa 0,0 l/m 0 min 0 min 0 W/m 10,5 km/h (2 Bft) 93,48 %
19.08.2017 01:42 13,2 C 12,2 C 11,1 C 94 % 15 lf 1013,6 hPa 0,0 l/m 0 min 0 min 0 W/m 12,6 km/h (3 Bft) 93,62 %
19.08.2017 01:44 13,2 C 12,2 C 11,7 C 94 % 15 lf 1013,6 hPa 0,0 l/m 0 min 0 min 0 W/m 12,6 km/h (3 Bft) 93,62 %
19.08.2017 01:46 13,2 C 12,2 C 11,1 C 94 % 15 lf 1013,7 hPa 0,0 l/m 0 min 0 min 0 W/m 10,5 km/h (2 Bft) 93,62 %
19.08.2017 01:48 13,1 C 12,2 C 11,1 C 94 % 15 lf 1013,7 hPa 0,0 l/m 0 min 0 min 0 W/m 12,6 km/h (3 Bft) 91,49 %
19.08.2017 01:50 13,1 C 12,2 C 11,1 C 94 % 15 lf 1013,7 hPa 0,0 l/m 0 min 0 min 0 W/m 10,5 km/h (2 Bft) 93,62 %
19.08.2017 01:52 13,1 C 12,2 C 11,1 C 94 % 15 lf 1013,8 hPa 0,0 l/m 0 min 0 min 0 W/m 14,6 km/h (3 Bft) 89,13 %
19.08.2017 01:54 13,1 C 12,2 C 11,1 C 94 % 15 lf 1013,8 hPa 0,0 l/m 0 min 0 min 0 W/m 16,7 km/h (3 Bft) 93,62 %
19.08.2017 01:56 13,1 C 12,2 C 11,1 C 94 % 15 lf 1013,8 hPa 0,0 l/m 0 min 0 min 0 W/m 12,6 km/h (3 Bft) 93,62 %
19.08.2017 01:58 13,1 C 12,2 C 11,1 C 94 % 15 lf 1013,8 hPa 0,0 l/m 0 min 0 min 0 W/m 10,5 km/h (2 Bft) 95,65 %
19.08.2017 02:00 13,0 C 12,2 C 11,1 C 94 % 15 lf 1013,9 hPa 0,0 l/m 0 min 0 min 0 W/m 16,7 km/h (3 Bft) 87,23 %
19.08.2017 02:02 13,0 C 12,2 C 11,1 C 94 % 15 lf 1013,9 hPa 0,0 l/m 0 min 0 min 0 W/m 14,6 km/h (3 Bft) 93,75 %
19.08.2017 02:04 13,0 C 12,2 C 11,1 C 94 % 15 lf 1013,9 hPa 0,0 l/m 0 min 0 min 0 W/m 14,6 km/h (3 Bft) 93,62 %
19.08.2017 02:06 13,0 C 12,8 C 11,1 C 94 % 15 lf 1013,9 hPa 0,0 l/m 0 min 0 min 0 W/m 18,8 km/h (3 Bft) 93,62 %
19.08.2017 02:08 13,0 C 12,8 C 11,1 C 94 % 15 lf 1013,9 hPa 0,0 l/m 0 min 0 min 0 W/m 14,6 km/h (3 Bft) 93,62 %
19.08.2017 02:10 12,9 C 12,2 C 11,1 C 94 % 15 lf 1013,9 hPa 0,0 l/m 0 min 0 min 0 W/m 14,6 km/h (3 Bft) 97,87 %
19.08.2017 02:12 12,9 C 12,2 C 11,1 C 94 % 15 lf 1013,8 hPa 0,0 l/m 0 min 0 min 0 W/m 8,4 km/h (2 Bft) 97,83 %
19.08.2017 02:14 12,9 C 12,8 C 11,1 C 94 % 15 lf 1013,8 hPa 0,0 l/m 0 min 0 min 0 W/m 14,6 km/h (3 Bft) 97,87 %
19.08.2017 02:16 12,9 C 12,8 C 11,1 C 94 % 15 lf 1013,9 hPa 0,0 l/m 0 min 0 min 0 W/m 14,6 km/h (3 Bft) 95,74 %
19.08.2017 02:18 12,9 C 12,8 C 11,1 C 94 % 15 lf 1013,9 hPa 0,0 l/m 0 min 0 min 0 W/m 14,6 km/h (3 Bft) 95,74 %
19.08.2017 02:20 12,9 C 12,8 C 11,1 C 94 % 15 lf 1013,8 hPa 0,0 l/m 0 min 0 min 0 W/m 16,7 km/h (3 Bft) 97,87 %
19.08.2017 02:22 12,9 C 12,8 C 11,1 C 94 % 15 lf 1013,8 hPa 0,0 l/m 0 min 0 min 0 W/m 14,6 km/h (3 Bft) 97,83 %
19.08.2017 02:24 12,9 C 12,2 C 11,1 C 94 % 15 lf 1013,9 hPa 0,0 l/m 0 min 0 min 0 W/m 12,6 km/h (3 Bft) 97,87 %
19.08.2017 02:26 12,9 C 12,2 C 11,1 C 94 % 15 lf 1013,9 hPa 0,0 l/m 0 min 0 min 0 W/m 12,6 km/h (3 Bft) 95,74 %
19.08.2017 02:28 12,9 C 12,2 C 11,1 C 94 % 14 lf 1013,9 hPa 0,0 l/m 0 min 0 min 0 W/m 12,6 km/h (3 Bft) 91,49 %
19.08.2017 02:30 12,9 C 12,2 C 11,1 C 94 % 13 lf 1014,0 hPa 0,0 l/m 0 min 0 min 0 W/m 10,5 km/h (2 Bft) 100,00 %
19.08.2017 02:32 12,9 C 12,2 C 11,1 C 94 % 13 lf 1014,0 hPa 0,0 l/m 0 min 0 min 0 W/m 14,6 km/h (3 Bft) 97,87 %
19.08.2017 02:34 12,9 C 12,2 C 11,1 C 94 % 12 lf 1013,9 hPa 0,0 l/m 0 min 0 min 0 W/m 14,6 km/h (3 Bft) 100,00 %
19.08.2017 02:36 12,8 C 12,2 C 11,1 C 94 % 12 lf 1013,9 hPa 0,0 l/m 0 min 0 min 0 W/m 8,4 km/h (2 Bft) 100,00 %
19.08.2017 02:38 12,8 C 12,2 C 11,1 C 94 % 11 lf 1014,0 hPa 0,0 l/m 0 min 0 min 0 W/m 14,6 km/h (3 Bft) 97,87 %
19.08.2017 02:40 12,8 C 12,2 C 11,1 C 94 % 10 lf 1013,9 hPa 0,0 l/m 0 min 0 min 0 W/m 16,7 km/h (3 Bft) 91,49 %
19.08.2017 02:42 12,8 C 12,2 C 11,1 C 94 % 9 lf 1013,9 hPa 0,0 l/m 0 min 0 min 0 W/m 8,4 km/h (2 Bft) 97,87 %
19.08.2017 02:44 12,8 C 12,2 C 11,1 C 94 % 7 lf 1014,0 hPa 0,0 l/m 0 min 0 min 0 W/m 16,7 km/h (3 Bft) 97,87 %
19.08.2017 02:46 12,8 C 12,2 C 11,1 C 94 % 5 lf 1013,9 hPa 0,0 l/m 0 min 0 min 0 W/m 12,6 km/h (3 Bft) 97,83 %
19.08.2017 02:48 12,8 C 12,2 C 11,1 C 94 % 4 lf 1013,9 hPa 0,0 l/m 0 min 0 min 0 W/m 12,6 km/h (3 Bft) 97,87 %
19.08.2017 02:50 12,8 C 12,2 C 11,1 C 94 % 3 lf 1013,9 hPa 0,0 l/m 0 min 0 min 0 W/m 14,6 km/h (3 Bft) 93,62 %
19.08.2017 02:52 12,7 C 12,2 C 11,1 C 94 % 3 lf 1013,9 hPa 0,0 l/m 0 min 0 min 0 W/m 10,5 km/h (2 Bft) 97,87 %
19.08.2017 02:54 12,7 C 12,2 C 11,1 C 94 % 3 lf 1014,0 hPa 0,0 l/m 0 min 0 min 0 W/m 16,7 km/h (3 Bft) 97,87 %
19.08.2017 02:56 12,7 C 12,2 C 10,6 C 94 % 2 lf 1014,1 hPa 0,0 l/m 0 min 0 min 0 W/m 14,6 km/h (3 Bft) 97,87 %
19.08.2017 02:58 12,7 C 12,2 C 10,6 C 94 % 2 lf 1014,0 hPa 0,0 l/m 0 min 0 min 4 W/m 10,5 km/h (2 Bft) 93,48 %
19.08.2017 03:00 12,7 C 12,2 C 10,6 C 94 % 2 lf 1014,0 hPa 0,0 l/m 0 min 0 min 0 W/m 8,4 km/h (2 Bft) 97,87 %
19.08.2017 03:02 12,7 C 12,2 C 10,6 C 94 % 2 lf 1014,0 hPa 0,0 l/m 0 min 0 min 4 W/m 8,4 km/h (2 Bft) 97,87 %
19.08.2017 03:04 12,7 C 12,2 C 10,6 C 94 % 2 lf 1014,0 hPa 0,0 l/m 0 min 0 min 0 W/m 12,6 km/h (3 Bft) 97,87 %
19.08.2017 03:06 12,7 C 12,2 C 10,6 C 94 % 2 lf 1014,0 hPa 0,0 l/m 0 min 0 min 4 W/m 14,6 km/h (3 Bft) 95,74 %
19.08.2017 03:08 12,7 C 12,2 C 10,6 C 94 % 2 lf 1014,0 hPa 0,0 l/m 0 min 0 min 0 W/m 14,6 km/h (3 Bft) 93,62 %
19.08.2017 03:10 12,7 C 12,2 C 10,6 C 94 % 2 lf 1014,0 hPa 0,0 l/m 0 min 0 min 0 W/m 12,6 km/h (3 Bft) 97,83 %
19.08.2017 03:12 12,7 C 12,2 C 10,6 C 94 % 2 lf 1014,0 hPa 0,0 l/m 0 min 0 min 0 W/m 12,6 km/h (3 Bft) 95,24 %
19.08.2017 03:14 12,6 C 12,2 C 10,6 C 94 % 2 lf 1014,0 hPa 0,0 l/m 0 min 0 min 0 W/m 14,6 km/h (3 Bft) 93,48 %
19.08.2017 03:16 12,6 C 12,2 C 10,6 C 94 % 2 lf 1014,0 hPa 0,0 l/m 0 min 0 min 0 W/m 14,6 km/h (3 Bft) 95,74 %
19.08.2017 03:18 12,6 C 12,2 C 10,6 C 94 % 2 lf 1014,0 hPa 0,0 l/m 0 min 0 min 0 W/m 10,5 km/h (2 Bft) 97,87 %
19.08.2017 03:20 12,6 C 12,2 C 10,6 C 94 % 2 lf 1014,0 hPa 0,0 l/m 0 min 0 min 0 W/m 16,7 km/h (3 Bft) 96,61 %
19.08.2017 03:22 12,6 C 12,2 C 10,6 C 94 % 2 lf 1014,0 hPa 0,0 l/m 0 min 0 min 0 W/m 14,6 km/h (3 Bft) 97,22 %
19.08.2017 03:24 12,6 C 12,2 C 10,6 C 94 % 2 lf 1014,0 hPa 0,0 l/m 0 min 0 min 0 W/m 12,6 km/h (3 Bft) 95,74 %
19.08.2017 03:26 12,6 C 12,2 C 10,6 C 94 % 2 lf 1014,0 hPa 0,0 l/m 0 min 0 min 3 W/m 20,9 km/h (4 Bft) 97,83 %
19.08.2017 03:28 12,6 C 12,2 C 10,6 C 94 % 2 lf 1014,0 hPa 0,0 l/m 0 min 0 min 5 W/m 16,7 km/h (3 Bft) 97,87 %
19.08.2017 03:30 12,6 C 11,7 C 10,6 C 94 % 2 lf 1014,0 hPa 0,0 l/m 0 min 0 min 5 W/m 8,4 km/h (2 Bft) 97,87 %
19.08.2017 03:32 12,6 C 11,7 C 10,6 C 94 % 2 lf 1014,0 hPa 0,0 l/m 0 min 0 min 5 W/m 10,5 km/h (2 Bft) 97,92 %
19.08.2017 03:34 12,6 C 12,2 C 10,6 C 94 % 2 lf 1014,0 hPa 0,0 l/m 0 min 0 min 5 W/m 12,6 km/h (3 Bft) 95,74 %
19.08.2017 03:36 12,5 C 11,7 C 10,6 C 94 % 2 lf 1014,0 hPa 0,0 l/m 0 min 0 min 5 W/m 12,6 km/h (3 Bft) 97,83 %
19.08.2017 03:38 12,5 C 11,7 C 10,6 C 94 % 2 lf 1014,0 hPa 0,0 l/m 0 min 0 min 5 W/m 12,6 km/h (3 Bft) 97,87 %
19.08.2017 03:40 12,5 C 12,2 C 10,6 C 94 % 2 lf 1014,0 hPa 0,0 l/m 0 min 0 min 5 W/m 18,8 km/h (3 Bft) 97,87 %
19.08.2017 03:42 12,5 C 12,2 C 10,6 C 94 % 2 lf 1014,0 hPa 0,0 l/m 0 min 0 min 5 W/m 14,6 km/h (3 Bft) 97,92 %
19.08.2017 03:44 12,5 C 12,2 C 10,6 C 94 % 2 lf 1014,0 hPa 0,0 l/m 0 min 0 min 5 W/m 12,6 km/h (3 Bft) 97,87 %
19.08.2017 03:46 12,5 C 12,2 C 10,6 C 94 % 2 lf 1014,0 hPa 0,0 l/m 0 min 0 min 5 W/m 20,9 km/h (4 Bft) 97,87 %
19.08.2017 03:48 12,5 C 12,2 C 10,6 C 94 % 2 lf 1014,0 hPa 0,0 l/m 0 min 0 min 5 W/m 18,8 km/h (3 Bft) 97,83 %
19.08.2017 03:50 12,5 C 12,2 C 10,6 C 94 % 2 lf 1013,9 hPa 0,0 l/m 0 min 0 min 5 W/m 18,8 km/h (3 Bft) 91,49 %
19.08.2017 03:52 12,5 C 12,2 C 10,6 C 94 % 2 lf 1013,9 hPa 0,0 l/m 0 min 0 min 5 W/m 12,6 km/h (3 Bft) 97,87 %
19.08.2017 03:54 12,5 C 12,2 C 10,6 C 94 % 2 lf 1013,9 hPa 0,0 l/m 0 min 0 min 5 W/m 10,5 km/h (2 Bft) 97,87 %
19.08.2017 03:56 12,5 C 12,2 C 10,6 C 94 % 2 lf 1013,9 hPa 0,0 l/m 0 min 0 min 5 W/m 10,5 km/h (2 Bft) 97,87 %
19.08.2017 03:58 12,5 C 12,2 C 10,6 C 94 % 2 lf 1013,9 hPa 0,0 l/m 0 min 0 min 5 W/m 12,6 km/h (3 Bft) 100,00 %
19.08.2017 04:00 12,5 C 11,7 C 10,6 C 94 % 2 lf 1013,9 hPa 0,0 l/m 0 min 0 min 5 W/m 20,9 km/h (4 Bft) 97,83 %
19.08.2017 04:05 12,4 C 11,7 C 10,6 C 94 % 2 lf 1013,9 hPa 0,0 l/m 0 min 0 min 5 W/m 23,0 km/h (4 Bft) 98,55 %
19.08.2017 04:06 12,4 C 11,7 C 10,6 C 94 % 2 lf 1013,9 hPa 0,0 l/m 0 min 0 min 5 W/m 10,5 km/h (2 Bft) 100,00 %
19.08.2017 04:08 12,4 C 11,7 C 10,6 C 94 % 2 lf 1013,9 hPa 0,0 l/m 0 min 0 min 5 W/m 14,6 km/h (3 Bft) 100,00 %
19.08.2017 04:10 12,4 C 11,7 C 10,6 C 94 % 2 lf 1013,8 hPa 0,0 l/m 0 min 0 min 5 W/m 12,6 km/h (3 Bft) 100,00 %
19.08.2017 04:12 12,4 C 12,2 C 10,6 C 94 % 2 lf 1013,9 hPa 0,0 l/m 0 min 0 min 5 W/m 14,6 km/h (3 Bft) 100,00 %
19.08.2017 04:14 12,4 C 12,2 C 10,6 C 94 % 2 lf 1013,9 hPa 0,0 l/m 0 min 0 min 5 W/m 12,6 km/h (3 Bft) 97,87 %
19.08.2017 04:16 12,4 C 12,2 C 10,6 C 94 % 2 lf 1013,9 hPa 0,0 l/m 0 min 0 min 5 W/m 14,6 km/h (3 Bft) 100,00 %
19.08.2017 04:18 12,4 C 12,2 C 10,6 C 94 % 2 lf 1013,9 hPa 0,2 l/m 0 min 0 min 5 W/m 14,6 km/h (3 Bft) 97,87 %
19.08.2017 04:20 12,4 C 12,2 C 10,6 C 94 % 2 lf 1013,9 hPa 0,0 l/m 0 min 0 min 5 W/m 14,6 km/h (3 Bft) 100,00 %
19.08.2017 04:22 12,4 C 12,2 C 10,6 C 94 % 2 lf 1013,9 hPa 0,0 l/m 0 min 0 min 5 W/m 14,6 km/h (3 Bft) 100,00 %
19.08.2017 04:24 12,4 C 12,2 C 10,6 C 94 % 2 lf 1013,8 hPa 0,0 l/m 0 min 0 min 5 W/m 14,6 km/h (3 Bft) 100,00 %
19.08.2017 04:26 12,4 C 12,2 C 10,6 C 94 % 2 lf 1013,9 hPa 0,0 l/m 0 min 0 min 5 W/m 23,0 km/h (4 Bft) 100,00 %
19.08.2017 04:28 12,4 C 12,2 C 10,6 C 94 % 2 lf 1013,8 hPa 0,0 l/m 0 min 0 min 5 W/m 23,0 km/h (4 Bft) 97,87 %
19.08.2017 04:30 12,4 C 12,2 C 10,6 C 94 % 2 lf 1013,8 hPa 0,0 l/m 0 min 0 min 5 W/m 18,8 km/h (3 Bft) 100,00 %
19.08.2017 04:32 12,4 C 12,2 C 10,6 C 94 % 1 lf 1013,7 hPa 0,0 l/m 0 min 0 min 5 W/m 18,8 km/h (3 Bft) 97,92 %
19.08.2017 04:34 12,4 C 12,2 C 10,6 C 94 % 1 lf 1013,7 hPa 0,0 l/m 0 min 0 min 5 W/m 23,0 km/h (4 Bft) 100,00 %
19.08.2017 04:36 12,4 C 12,2 C 10,6 C 94 % 1 lf 1013,8 hPa 0,0 l/m 0 min 0 min 5 W/m 20,9 km/h (4 Bft) 97,87 %
19.08.2017 04:38 12,4 C 12,2 C 10,6 C 94 % 1 lf 1013,8 hPa 0,0 l/m 0 min 0 min 5 W/m 14,6 km/h (3 Bft) 97,87 %
19.08.2017 04:40 12,4 C 12,2 C 10,6 C 94 % 1 lf 1013,8 hPa 0,0 l/m 0 min 0 min 5 W/m 25,1 km/h (4 Bft) 97,87 %
19.08.2017 04:42 12,4 C 12,2 C 10,6 C 94 % 1 lf 1013,9 hPa 0,0 l/m 0 min 0 min 5 W/m 18,8 km/h (3 Bft) 97,92 %
19.08.2017 04:44 12,4 C 12,2 C 10,6 C 94 % 1 lf 1013,9 hPa 0,0 l/m 0 min 0 min 5 W/m 14,6 km/h (3 Bft) 95,65 %
19.08.2017 04:46 12,4 C 12,2 C 10,6 C 94 % 1 lf 1013,9 hPa 0,0 l/m 0 min 0 min 5 W/m 10,5 km/h (2 Bft) 95,74 %
19.08.2017 04:48 12,4 C 12,2 C 10,6 C 94 % 1 lf 1013,9 hPa 0,0 l/m 0 min 0 min 5 W/m 20,9 km/h (4 Bft) 97,87 %
19.08.2017 04:50 12,4 C 12,2 C 10,6 C 94 % 1 lf 1013,9 hPa 0,0 l/m 0 min 0 min 5 W/m 20,9 km/h (4 Bft) 97,87 %
19.08.2017 04:52 12,4 C 12,2 C 10,6 C 94 % 1 lf 1013,9 hPa 0,0 l/m 0 min 0 min 5 W/m 16,7 km/h (3 Bft) 95,74 %
19.08.2017 04:54 12,4 C 12,2 C 10,6 C 94 % 1 lf 1013,9 hPa 0,0 l/m 0 min 0 min 5 W/m 16,7 km/h (3 Bft) 95,74 %
19.08.2017 04:56 12,4 C 12,2 C 10,6 C 94 % 1 lf 1013,9 hPa 0,0 l/m 0 min 0 min 5 W/m 18,8 km/h (3 Bft) 97,83 %
19.08.2017 04:58 12,4 C 12,2 C 10,6 C 94 % 1 lf 1013,9 hPa 0,0 l/m 0 min 0 min 5 W/m 18,8 km/h (3 Bft) 95,74 %
19.08.2017 05:00 12,4 C 12,2 C 10,6 C 94 % 1 lf 1013,9 hPa 0,0 l/m 0 min 0 min 5 W/m 12,6 km/h (3 Bft) 93,62 %
19.08.2017 05:02 12,4 C 12,2 C 10,6 C 94 % 1 lf 1013,9 hPa 0,0 l/m 0 min 0 min 5 W/m 16,7 km/h (3 Bft) 93,62 %
19.08.2017 05:04 12,4 C 12,2 C 10,6 C 94 % 1 lf 1013,9 hPa 0,0 l/m 0 min 0 min 5 W/m 16,7 km/h (3 Bft) 95,74 %
19.08.2017 05:06 12,4 C 12,2 C 10,6 C 94 % 1 lf 1013,9 hPa 0,0 l/m 0 min 0 min 5 W/m 14,6 km/h (3 Bft) 91,30 %
19.08.2017 05:08 12,4 C 12,2 C 10,6 C 94 % 1 lf 1013,9 hPa 0,0 l/m 0 min 0 min 5 W/m 16,7 km/h (3 Bft) 93,62 %
19.08.2017 05:10 12,4 C 12,2 C 10,6 C 94 % 1 lf 1013,9 hPa 0,0 l/m 0 min 0 min 5 W/m 18,8 km/h (3 Bft) 93,62 %
19.08.2017 05:12 12,4 C 12,2 C 10,6 C 94 % 1 lf 1013,9 hPa 0,0 l/m 0 min 0 min 5 W/m 12,6 km/h (3 Bft) 93,62 %
19.08.2017 05:14 12,4 C 12,2 C 10,6 C 94 % 1 lf 1013,9 hPa 0,0 l/m 0 min 0 min 5 W/m 12,6 km/h (3 Bft) 91,49 %
19.08.2017 05:16 12,4 C 12,2 C 10,6 C 94 % 1 lf 1013,9 hPa 0,0 l/m 0 min 0 min 5 W/m 23,0 km/h (4 Bft) 91,49 %
19.08.2017 05:18 12,4 C 12,2 C 10,6 C 94 % 1 lf 1013,9 hPa 0,0 l/m 0 min 0 min 5 W/m 12,6 km/h (3 Bft) 93,48 %
19.08.2017 05:20 12,4 C 12,2 C 10,6 C 94 % 1 lf 1013,9 hPa 0,0 l/m 0 min 0 min 5 W/m 18,8 km/h (3 Bft) 89,36 %
19.08.2017 05:22 12,4 C 12,2 C 10,6 C 94 % 1 lf 1013,9 hPa 0,0 l/m 0 min 0 min 5 W/m 23,0 km/h (4 Bft) 93,62 %
19.08.2017 05:24 12,4 C 12,2 C 10,6 C 94 % 1 lf 1013,9 hPa 0,0 l/m 0 min 0 min 5 W/m 18,8 km/h (3 Bft) 91,49 %
19.08.2017 05:26 12,4 C 12,2 C 10,6 C 94 % 1 lf 1013,9 hPa 0,0 l/m 0 min 0 min 5 W/m 14,6 km/h (3 Bft) 93,62 %
19.08.2017 05:28 12,4 C 12,2 C 10,6 C 94 % 1 lf 1014,0 hPa 0,0 l/m 0 min 0 min 5 W/m 23,0 km/h (4 Bft) 91,49 %
19.08.2017 05:30 12,4 C 12,2 C 10,6 C 94 % 1 lf 1013,9 hPa 0,0 l/m 0 min 0 min 5 W/m 25,1 km/h (4 Bft) 93,48 %
19.08.2017 05:32 12,4 C 12,2 C 10,6 C 94 % 1 lf 1014,0 hPa 0,0 l/m 0 min 0 min 5 W/m 20,9 km/h (4 Bft) 91,49 %
19.08.2017 05:34 12,4 C 12,2 C 10,6 C 94 % 1 lf 1013,9 hPa 0,0 l/m 0 min 0 min 5 W/m 16,7 km/h (3 Bft) 91,49 %
19.08.2017 05:36 12,4 C 12,2 C 10,6 C 94 % 1 lf 1014,0 hPa 0,0 l/m 0 min 0 min 5 W/m 16,7 km/h (3 Bft) 89,36 %
19.08.2017 05:38 12,4 C 12,2 C 10,6 C 94 % 1 lf 1014,0 hPa 0,0 l/m 0 min 0 min 5 W/m 20,9 km/h (4 Bft) 91,49 %
19.08.2017 05:40 12,4 C 12,2 C 10,6 C 94 % 1 lf 1014,0 hPa 0,0 l/m 0 min 0 min 5 W/m 12,6 km/h (3 Bft) 91,49 %
19.08.2017 05:42 12,3 C 12,2 C 10,6 C 94 % 1 lf 1014,0 hPa 0,0 l/m 0 min 0 min 5 W/m 14,6 km/h (3 Bft) 90,24 %
19.08.2017 05:44 12,3 C 12,2 C 10,6 C 94 % 1 lf 1014,0 hPa 0,0 l/m 0 min 0 min 5 W/m 10,5 km/h (2 Bft) 93,62 %
19.08.2017 05:46 12,3 C 12,2 C 10,6 C 94 % 1 lf 1013,9 hPa 0,0 l/m 0 min 0 min 5 W/m 14,6 km/h (3 Bft) 93,48 %
19.08.2017 05:48 12,3 C 12,2 C 10,6 C 94 % 1 lf 1013,9 hPa 0,0 l/m 0 min 0 min 5 W/m 23,0 km/h (4 Bft) 91,49 %
19.08.2017 05:50 12,3 C 12,2 C 10,6 C 93 % 1 lf 1013,9 hPa 0,0 l/m 0 min 0 min 5 W/m 16,7 km/h (3 Bft) 93,22 %
19.08.2017 05:53 12,3 C 11,7 C 10,6 C 93 % 1 lf 1014,0 hPa 0,0 l/m 0 min 0 min 5 W/m 16,7 km/h (3 Bft) 91,43 %
19.08.2017 05:54 12,3 C 11,7 C 10,6 C 93 % 1 lf 1014,0 hPa 0,0 l/m 0 min 0 min 5 W/m 14,6 km/h (3 Bft) 91,67 %
19.08.2017 05:58 12,3 C 12,2 C 10,6 C 93 % 1 lf 1014,1 hPa 0,0 l/m 0 min 0 min 5 W/m 14,6 km/h (3 Bft) 95,24 %
19.08.2017 05:59 12,3 C 12,2 C 10,6 C 93 % 1 lf 1014,1 hPa 0,0 l/m 0 min 0 min 5 W/m 16,7 km/h (3 Bft) 91,67 %
19.08.2017 06:00 12,3 C 12,2 C 10,6 C 93 % 1 lf 1014,1 hPa 0,0 l/m 0 min 0 min 5 W/m 16,7 km/h (3 Bft) 97,37 %
19.08.2017 06:05 12,3 C 11,7 C 10,6 C 93 % 1 lf 1014,2 hPa 0,0 l/m 0 min 0 min 5 W/m 18,8 km/h (3 Bft) 98,25 %
19.08.2017 06:10 12,3 C 12,2 C 10,6 C 93 % 1 lf 1014,3 hPa 0,0 l/m 0 min 0 min 5 W/m 23,0 km/h (4 Bft) 100,00 %
19.08.2017 06:15 12,3 C 12,2 C 10,6 C 93 % 1 lf 1014,2 hPa 0,0 l/m 0 min 0 min 5 W/m 23,0 km/h (4 Bft) 100,00 %
19.08.2017 06:18 12,3 C 12,2 C 10,6 C 93 % 1 lf 1014,2 hPa 0,0 l/m 0 min 0 min 5 W/m 20,9 km/h (4 Bft) 100,00 %
19.08.2017 06:20 12,3 C 12,2 C 10,6 C 93 % 1 lf 1014,2 hPa 0,0 l/m 0 min 0 min 5 W/m 14,6 km/h (3 Bft) 97,87 %
19.08.2017 06:22 12,3 C 12,2 C 10,6 C 93 % 1 lf 1014,2 hPa 0,0 l/m 0 min 0 min 7 W/m 16,7 km/h (3 Bft) 95,74 %
19.08.2017 06:24 12,3 C 12,2 C 10,6 C 93 % 1 lf 1014,2 hPa 0,0 l/m 0 min 0 min 7 W/m 16,7 km/h (3 Bft) 97,87 %
19.08.2017 06:26 12,3 C 12,2 C 10,6 C 93 % 1 lf 1014,2 hPa 0,0 l/m 0 min 0 min 7 W/m 23,0 km/h (4 Bft) 100,00 %
19.08.2017 06:28 12,3 C 12,2 C 10,6 C 93 % 1 lf 1014,2 hPa 0,0 l/m 0 min 0 min 8 W/m 18,8 km/h (3 Bft) 100,00 %
19.08.2017 06:30 12,2 C 12,2 C 10,6 C 93 % 1 lf 1014,2 hPa 0,0 l/m 0 min 0 min 9 W/m 20,9 km/h (4 Bft) 95,65 %
19.08.2017 06:32 12,2 C 12,2 C 10,6 C 93 % 1 lf 1014,2 hPa 0,0 l/m 0 min 0 min 9 W/m 14,6 km/h (3 Bft) 100,00 %
19.08.2017 06:34 12,2 C 12,2 C 10,6 C 93 % 1 lf 1014,2 hPa 0,0 l/m 0 min 0 min 11 W/m 18,8 km/h (3 Bft) 97,87 %
19.08.2017 06:36 12,2 C 12,2 C 10,6 C 93 % 1 lf 1014,2 hPa 0,0 l/m 0 min 0 min 11 W/m 12,6 km/h (3 Bft) 100,00 %
19.08.2017 06:38 12,2 C 12,2 C 10,6 C 93 % 1 lf 1014,2 hPa 0,0 l/m 0 min 0 min 12 W/m 20,9 km/h (4 Bft) 97,87 %
19.08.2017 06:40 12,2 C 12,2 C 10,6 C 93 % 1 lf 1014,2 hPa 0,0 l/m 0 min 0 min 14 W/m 16,7 km/h (3 Bft) 97,83 %
19.08.2017 06:42 12,2 C 12,2 C 10,6 C 93 % 1 lf 1014,2 hPa 0,0 l/m 0 min 0 min 16 W/m 14,6 km/h (3 Bft) 100,00 %
19.08.2017 06:44 12,2 C 12,2 C 10,6 C 93 % 1 lf 1014,2 hPa 0,0 l/m 0 min 0 min 18 W/m 23,0 km/h (4 Bft) 93,62 %
19.08.2017 06:46 12,2 C 12,2 C 10,6 C 93 % 1 lf 1014,3 hPa 0,0 l/m 0 min 0 min 19 W/m 18,8 km/h (3 Bft) 100,00 %
19.08.2017 06:48 12,2 C 12,2 C 10,6 C 93 % 1 lf 1014,3 hPa 0,0 l/m 2 min 0 min 21 W/m 16,7 km/h (3 Bft) 100,00 %
19.08.2017 06:50 12,2 C 12,2 C 10,6 C 93 % 1 lf 1014,2 hPa 0,0 l/m 2 min 0 min 23 W/m 25,1 km/h (4 Bft) 97,87 %
19.08.2017 06:52 12,2 C 12,2 C 10,6 C 93 % 1 lf 1014,4 hPa 0,0 l/m 2 min 0 min 26 W/m 16,7 km/h (3 Bft) 100,00 %
19.08.2017 06:54 12,2 C 12,2 C 10,6 C 93 % 1 lf 1014,3 hPa 0,0 l/m 0 min 0 min 26 W/m 27,2 km/h (4 Bft) 100,00 %
19.08.2017 06:56 12,2 C 12,2 C 10,6 C 93 % 1 lf 1014,3 hPa 0,0 l/m 0 min 0 min 26 W/m 10,5 km/h (2 Bft) 100,00 %
19.08.2017 06:58 12,2 C 12,2 C 10,6 C 93 % 1 lf 1014,3 hPa 0,0 l/m 0 min 0 min 28 W/m 23,0 km/h (4 Bft) 97,87 %
19.08.2017 07:00 12,2 C 12,2 C 10,6 C 93 % 1 lf 1014,3 hPa 0,0 l/m 0 min 0 min 30 W/m 10,5 km/h (2 Bft) 100,00 %
19.08.2017 07:02 12,3 C 12,2 C 10,6 C 93 % 1 lf 1014,3 hPa 0,0 l/m 2 min 0 min 38 W/m 18,8 km/h (3 Bft) 95,74 %
19.08.2017 07:04 12,3 C 12,2 C 10,6 C 93 % 1 lf 1014,3 hPa 0,0 l/m 2 min 0 min 45 W/m 16,7 km/h (3 Bft) 97,83 %
19.08.2017 07:06 12,3 C 12,2 C 10,6 C 93 % 1 lf 1014,3 hPa 0,0 l/m 2 min 0 min 48 W/m 18,8 km/h (3 Bft) 97,87 %
19.08.2017 07:08 12,3 C 12,2 C 10,6 C 93 % 1 lf 1014,3 hPa 0,0 l/m 2 min 0 min 52 W/m 20,9 km/h (4 Bft) 97,87 %
19.08.2017 07:10 12,3 C 12,2 C 10,6 C 93 % 1 lf 1014,3 hPa 0,0 l/m 2 min 0 min 56 W/m 20,9 km/h (4 Bft) 100,00 %
19.08.2017 07:12 12,3 C 12,2 C 10,6 C 93 % 1 lf 1014,4 hPa 0,0 l/m 2 min 0 min 61 W/m 18,8 km/h (3 Bft) 93,62 %
19.08.2017 07:14 12,3 C 12,2 C 10,6 C 93 % 1 lf 1014,5 hPa 0,0 l/m 2 min 0 min 64 W/m 16,7 km/h (3 Bft) 97,87 %
19.08.2017 07:16 12,3 C 12,2 C 10,6 C 93 % 1 lf 1014,5 hPa 0,0 l/m 2 min 0 min 69 W/m 10,5 km/h (2 Bft) 97,83 %
19.08.2017 07:18 12,3 C 12,2 C 10,6 C 93 % 1 lf 1014,5 hPa 0,0 l/m 2 min 0 min 75 W/m 20,9 km/h (4 Bft) 97,87 %
19.08.2017 07:20 12,3 C 12,2 C 10,6 C 93 % 1 lf 1014,5 hPa 0,0 l/m 2 min 0 min 79 W/m 18,8 km/h (3 Bft) 97,87 %
19.08.2017 07:22 12,3 C 12,2 C 10,6 C 93 % 1 lf 1014,6 hPa 0,0 l/m 2 min 0 min 83 W/m 12,6 km/h (3 Bft) 97,87 %
19.08.2017 07:24 12,3 C 12,8 C 10,6 C 93 % 1 lf 1014,6 hPa 0,0 l/m 2 min 0 min 86 W/m 18,8 km/h (3 Bft) 97,87 %
19.08.2017 07:26 12,3 C 12,8 C 10,6 C 93 % 1 lf 1014,6 hPa 0,0 l/m 2 min 0 min 93 W/m 16,7 km/h (3 Bft) 97,87 %
19.08.2017 07:28 12,4 C 12,8 C 10,6 C 93 % 1 lf 1014,6 hPa 0,0 l/m 2 min 0 min 98 W/m 20,9 km/h (4 Bft) 97,83 %
19.08.2017 07:30 12,4 C 12,8 C 10,6 C 93 % 1 lf 1014,7 hPa 0,0 l/m 2 min 0 min 102 W/m 20,9 km/h (4 Bft) 93,62 %
19.08.2017 07:32 12,4 C 12,8 C 10,6 C 93 % 1 lf 1014,7 hPa 0,0 l/m 2 min 0 min 107 W/m 20,9 km/h (4 Bft) 97,87 %
19.08.2017 07:34 12,4 C 12,8 C 10,6 C 93 % 1 lf 1014,7 hPa 0,0 l/m 2 min 0 min 113 W/m 16,7 km/h (3 Bft) 95,74 %
19.08.2017 07:36 12,4 C 12,8 C 10,6 C 93 % 1 lf 1014,8 hPa 0,0 l/m 2 min 0 min 120 W/m 12,6 km/h (3 Bft) 95,74 %
19.08.2017 07:38 12,5 C 12,8 C 11,1 C 93 % 1 lf 1014,7 hPa 0,0 l/m 2 min 0 min 124 W/m 20,9 km/h (4 Bft) 93,62 %
19.08.2017 07:40 12,5 C 12,8 C 11,1 C 93 % 1 lf 1014,7 hPa 0,0 l/m 2 min 0 min 131 W/m 20,9 km/h (4 Bft) 97,83 %
19.08.2017 07:42 12,5 C 12,8 C 11,1 C 93 % 1 lf 1014,7 hPa 0,0 l/m 2 min 0 min 137 W/m 20,9 km/h (4 Bft) 93,62 %
19.08.2017 07:44 12,6 C 12,8 C 11,1 C 92 % 1 lf 1014,5 hPa 0,0 l/m 2 min 0 min 141 W/m 20,9 km/h (4 Bft) 97,87 %
19.08.2017 07:46 12,6 C 12,8 C 11,1 C 92 % 1 lf 1014,5 hPa 0,0 l/m 2 min 0 min 143 W/m 14,6 km/h (3 Bft) 95,74 %
19.08.2017 07:48 12,6 C 12,8 C 11,1 C 93 % 1 lf 1014,6 hPa 0,0 l/m 2 min 0 min 148 W/m 14,6 km/h (3 Bft) 97,87 %
19.08.2017 07:50 12,6 C 13,3 C 11,1 C 92 % 1 lf 1014,6 hPa 0,0 l/m 2 min 0 min 138 W/m 23,0 km/h (4 Bft) 95,74 %
19.08.2017 07:52 12,7 C 13,3 C 11,1 C 92 % 1 lf 1014,6 hPa 0,0 l/m 2 min 0 min 160 W/m 23,0 km/h (4 Bft) 93,48 %
19.08.2017 07:54 12,7 C 13,3 C 11,1 C 92 % 1 lf 1014,5 hPa 0,0 l/m 2 min 0 min 167 W/m 25,1 km/h (4 Bft) 95,74 %
19.08.2017 07:56 12,7 C 13,3 C 11,1 C 92 % 0 lf 1014,5 hPa 0,0 l/m 2 min 0 min 176 W/m 27,2 km/h (4 Bft) 97,87 %
19.08.2017 07:58 12,7 C 13,3 C 11,1 C 92 % 0 lf 1014,6 hPa 0,0 l/m 2 min 0 min 188 W/m 20,9 km/h (4 Bft) 97,87 %
19.08.2017 08:00 12,8 C 13,3 C 11,7 C 92 % 0 lf 1014,4 hPa 0,0 l/m 2 min 0 min 206 W/m 18,8 km/h (3 Bft) 95,74 %
19.08.2017 08:02 12,8 C 13,9 C 11,7 C 92 % 0 lf 1014,5 hPa 0,0 l/m 2 min 0 min 225 W/m 14,6 km/h (3 Bft) 93,48 %
19.08.2017 08:04 12,9 C 13,9 C 11,7 C 92 % 0 lf 1014,5 hPa 0,0 l/m 2 min 0 min 244 W/m 16,7 km/h (3 Bft) 95,74 %
19.08.2017 08:06 12,9 C 13,9 C 11,7 C 92 % 0 lf 1014,6 hPa 0,0 l/m 2 min 0 min 258 W/m 18,8 km/h (3 Bft) 93,62 %
19.08.2017 08:08 12,9 C 14,4 C 11,7 C 92 % 0 lf 1014,5 hPa 0,0 l/m 2 min 0 min 196 W/m 23,0 km/h (4 Bft) 95,74 %
19.08.2017 08:10 13,0 C 14,4 C 11,7 C 91 % 0 lf 1014,5 hPa 0,0 l/m 2 min 0 min 221 W/m 18,8 km/h (3 Bft) 89,36 %
19.08.2017 08:12 13,1 C 13,9 C 11,7 C 91 % 0 lf 1014,6 hPa 0,0 l/m 2 min 0 min 274 W/m 33,5 km/h (5 Bft) 91,49 %
19.08.2017 08:14 13,1 C 13,9 C 11,7 C 91 % 0 lf 1014,6 hPa 0,0 l/m 2 min 0 min 333 W/m 33,5 km/h (5 Bft) 97,83 %
19.08.2017 08:16 13,2 C 13,9 C 11,7 C 91 % 0 lf 1014,7 hPa 0,0 l/m 0 min 0 min 113 W/m 35,6 km/h (5 Bft) 95,74 %
19.08.2017 08:18 13,2 C 14,4 C 11,7 C 91 % 0 lf 1014,7 hPa 0,0 l/m 0 min 0 min 134 W/m 20,9 km/h (4 Bft) 95,74 %
19.08.2017 08:20 13,3 C 14,4 C 12,2 C 90 % 0 lf 1014,7 hPa 0,0 l/m 2 min 0 min 207 W/m 29,3 km/h (5 Bft) 95,74 %
19.08.2017 08:22 13,3 C 14,4 C 12,2 C 90 % 0 lf 1014,7 hPa 0,0 l/m 2 min 0 min 297 W/m 33,5 km/h (5 Bft) 95,74 %
19.08.2017 08:24 13,4 C 14,4 C 12,2 C 90 % 0 lf 1014,7 hPa 0,0 l/m 2 min 0 min 233 W/m 20,9 km/h (4 Bft) 95,74 %
19.08.2017 08:26 13,4 C 14,4 C 12,2 C 90 % 0 lf 1014,7 hPa 0,0 l/m 2 min 0 min 200 W/m 25,1 km/h (4 Bft) 95,65 %
19.08.2017 08:28 13,5 C 14,4 C 12,2 C 90 % 0 lf 1014,7 hPa 0,0 l/m 2 min 0 min 256 W/m 23,0 km/h (4 Bft) 97,87 %
19.08.2017 08:30 13,6 C 14,4 C 12,2 C 90 % 0 lf 1014,7 hPa 0,0 l/m 0 min 0 min 142 W/m 16,7 km/h (3 Bft) 95,74 %
19.08.2017 08:32 13,6 C 15,0 C 12,2 C 89 % 0 lf 1014,7 hPa 0,0 l/m 2 min 0 min 263 W/m 23,0 km/h (4 Bft) 97,87 %
19.08.2017 08:34 13,6 C 15,6 C 12,8 C 89 % 0 lf 1014,7 hPa 0,0 l/m 2 min 0 min 403 W/m 23,0 km/h (4 Bft) 97,87 %
19.08.2017 08:36 13,7 C 15,6 C 13,3 C 89 % 0 lf 1014,7 hPa 0,0 l/m 2 min 0 min 424 W/m 27,2 km/h (4 Bft) 97,87 %
19.08.2017 08:38 13,8 C 16,1 C 13,3 C 90 % 0 lf 1014,7 hPa 0,0 l/m 2 min 0 min 442 W/m 29,3 km/h (5 Bft) 95,65 %
19.08.2017 08:40 13,9 C 16,1 C 13,3 C 89 % 0 lf 1014,7 hPa 0,0 l/m 2 min 0 min 350 W/m 23,0 km/h (4 Bft) 95,74 %
19.08.2017 08:42 14,1 C 16,1 C 13,3 C 89 % 0 lf 1014,8 hPa 0,0 l/m 2 min 0 min 451 W/m 23,0 km/h (4 Bft) 97,87 %
19.08.2017 08:44 14,2 C 16,1 C 13,3 C 89 % 0 lf 1014,9 hPa 0,0 l/m 2 min 0 min 406 W/m 27,2 km/h (4 Bft) 97,87 %
19.08.2017 08:46 14,2 C 15,6 C 13,3 C 88 % 0 lf 1014,9 hPa 0,0 l/m 2 min 0 min 413 W/m 31,4 km/h (5 Bft) 95,74 %
19.08.2017 08:48 14,2 C 15,0 C 12,8 C 88 % 0 lf 1014,8 hPa 0,0 l/m 2 min 0 min 370 W/m 20,9 km/h (4 Bft) 97,87 %
19.08.2017 08:50 14,2 C 15,0 C 13,3 C 88 % 0 lf 1014,8 hPa 0,0 l/m 0 min 0 min 150 W/m 31,4 km/h (5 Bft) 97,83 %
19.08.2017 08:52 14,2 C 15,6 C 13,3 C 87 % 0 lf 1014,8 hPa 0,0 l/m 0 min 0 min 155 W/m 31,4 km/h (5 Bft) 97,87 %
19.08.2017 08:54 14,2 C 15,6 C 13,3 C 87 % 0 lf 1014,8 hPa 0,0 l/m 0 min 0 min 160 W/m 27,2 km/h (4 Bft) 97,87 %
19.08.2017 08:56 14,2 C 15,6 C 13,3 C 87 % 0 lf 1014,8 hPa 0,0 l/m 0 min 0 min 159 W/m 18,8 km/h (3 Bft) 100,00 %
19.08.2017 08:58 14,3 C 15,0 C 13,3 C 87 % 0 lf 1014,8 hPa 0,0 l/m 0 min 0 min 157 W/m 31,4 km/h (5 Bft) 93,62 %
19.08.2017 09:00 14,3 C 15,0 C 13,3 C 87 % 0 lf 1014,8 hPa 0,0 l/m 0 min 0 min 165 W/m 37,7 km/h (5 Bft) 100,00 %
19.08.2017 09:02 14,4 C 15,6 C 13,3 C 87 % 0 lf 1014,9 hPa 0,0 l/m 0 min 0 min 167 W/m 14,6 km/h (3 Bft) 95,74 %
19.08.2017 09:04 14,4 C 15,6 C 13,3 C 87 % 0 lf 1014,8 hPa 0,0 l/m 0 min 0 min 169 W/m 27,2 km/h (4 Bft) 95,74 %
19.08.2017 09:06 14,4 C 15,6 C 13,3 C 87 % 0 lf 1015,0 hPa 0,0 l/m 2 min 0 min 202 W/m 18,8 km/h (3 Bft) 95,74 %
19.08.2017 09:08 14,4 C 16,1 C 13,9 C 87 % 0 lf 1014,9 hPa 0,0 l/m 2 min 0 min 221 W/m 27,2 km/h (4 Bft) 97,87 %
19.08.2017 09:10 14,5 C 16,1 C 13,9 C 87 % 0 lf 1014,9 hPa 0,0 l/m 0 min 0 min 179 W/m 25,1 km/h (4 Bft) 93,62 %
19.08.2017 09:12 14,5 C 16,1 C 13,9 C 87 % 0 lf 1015,0 hPa 0,0 l/m 2 min 0 min 212 W/m 20,9 km/h (4 Bft) 95,65 %
19.08.2017 09:14 14,6 C 17,2 C 14,4 C 87 % 0 lf 1015,0 hPa 0,0 l/m 2 min 0 min 270 W/m 20,9 km/h (4 Bft) 93,62 %
19.08.2017 09:16 14,6 C 18,9 C 14,4 C 87 % 0 lf 1015,0 hPa 0,0 l/m 2 min 0 min 330 W/m 14,6 km/h (3 Bft) 93,62 %
19.08.2017 09:18 14,7 C 17,8 C 15,0 C 87 % 0 lf 1015,0 hPa 0,0 l/m 2 min 0 min 307 W/m 29,3 km/h (5 Bft) 93,62 %
19.08.2017 09:20 14,8 C 16,7 C 14,4 C 87 % 0 lf 1014,9 hPa 0,0 l/m 2 min 0 min 234 W/m 25,1 km/h (4 Bft) 95,74 %
19.08.2017 09:22 14,8 C 16,7 C 14,4 C 87 % 0 lf 1015,0 hPa 0,0 l/m 0 min 0 min 208 W/m 29,3 km/h (5 Bft) 93,62 %
19.08.2017 09:24 14,8 C 16,1 C 14,4 C 86 % 0 lf 1015,0 hPa 0,0 l/m 0 min 0 min 210 W/m 25,1 km/h (4 Bft) 95,65 %
19.08.2017 09:26 14,8 C 16,1 C 14,4 C 86 % 0 lf 1015,0 hPa 0,0 l/m 0 min 0 min 197 W/m 35,6 km/h (5 Bft) 95,74 %
19.08.2017 09:28 14,8 C 16,1 C 14,4 C 86 % 0 lf 1015,0 hPa 0,0 l/m 0 min 0 min 195 W/m 29,3 km/h (5 Bft) 95,74 %
19.08.2017 09:30 14,9 C 16,1 C 14,4 C 86 % 0 lf 1015,0 hPa 0,0 l/m 0 min 0 min 191 W/m 25,1 km/h (4 Bft) 95,74 %
19.08.2017 09:32 14,9 C 15,6 C 14,4 C 86 % 0 lf 1015,1 hPa 0,0 l/m 0 min 0 min 159 W/m 29,3 km/h (5 Bft) 95,74 %
19.08.2017 09:34 14,9 C 15,6 C 14,4 C 86 % 3 lf 1015,1 hPa 0,0 l/m 0 min 0 min 108 W/m 29,3 km/h (5 Bft) 93,62 %
19.08.2017 09:36 14,9 C 15,0 C 13,3 C 86 % 15 lf 1015,1 hPa 0,0 l/m 0 min 2 min 95 W/m 37,7 km/h (5 Bft) 95,65 %
19.08.2017 09:38 14,8 C 14,4 C 12,8 C 86 % 15 lf 1015,1 hPa 0,0 l/m 0 min 2 min 119 W/m 29,3 km/h (5 Bft) 91,49 %
19.08.2017 09:40 14,8 C 14,4 C 12,8 C 86 % 15 lf 1015,2 hPa 0,0 l/m 0 min 0 min 156 W/m 25,1 km/h (4 Bft) 95,74 %
19.08.2017 09:42 14,8 C 14,4 C 12,8 C 87 % 15 lf 1015,2 hPa 0,0 l/m 0 min 2 min 158 W/m 33,5 km/h (5 Bft) 95,74 %
19.08.2017 09:44 14,7 C 15,0 C 12,8 C 87 % 15 lf 1015,1 hPa 0,0 l/m 0 min 0 min 143 W/m 25,1 km/h (4 Bft) 97,87 %
19.08.2017 09:46 14,7 C 15,0 C 12,8 C 88 % 15 lf 1015,2 hPa 0,0 l/m 0 min 0 min 129 W/m 25,1 km/h (4 Bft) 97,87 %
19.08.2017 09:48 14,7 C 15,0 C 12,8 C 88 % 15 lf 1015,2 hPa 0,0 l/m 0 min 0 min 130 W/m 20,9 km/h (4 Bft) 97,83 %
19.08.2017 09:50 14,7 C 15,0 C 13,3 C 88 % 11 lf 1015,2 hPa 0,0 l/m 0 min 0 min 143 W/m 27,2 km/h (4 Bft) 95,74 %
19.08.2017 09:52 14,6 C 15,6 C 13,3 C 88 % 3 lf 1015,1 hPa 0,0 l/m 0 min 0 min 161 W/m 27,2 km/h (4 Bft) 95,74 %
19.08.2017 09:54 14,6 C 15,6 C 13,9 C 88 % 0 lf 1015,1 hPa 0,0 l/m 0 min 0 min 213 W/m 23,0 km/h (4 Bft) 97,87 %
19.08.2017 09:56 14,6 C 16,1 C 13,9 C 88 % 0 lf 1015,2 hPa 0,0 l/m 0 min 0 min 212 W/m 20,9 km/h (4 Bft) 95,74 %
19.08.2017 09:58 14,7 C 16,1 C 14,4 C 88 % 0 lf 1015,2 hPa 0,0 l/m 0 min 0 min 198 W/m 31,4 km/h (5 Bft) 97,87 %
19.08.2017 10:00 14,7 C 16,1 C 14,4 C 89 % 0 lf 1015,3 hPa 0,0 l/m 0 min 0 min 193 W/m 25,1 km/h (4 Bft) 97,83 %
19.08.2017 10:02 14,7 C 15,6 C 15,0 C 88 % 1 lf 1015,3 hPa 0,0 l/m 0 min 2 min 185 W/m 29,3 km/h (5 Bft) 100,00 %
19.08.2017 10:04 14,7 C 15,6 C 15,0 C 88 % 0 lf 1015,2 hPa 0,0 l/m 0 min 0 min 182 W/m 29,3 km/h (5 Bft) 97,87 %
19.08.2017 10:06 14,7 C 16,1 C 15,0 C 88 % 0 lf 1015,3 hPa 0,0 l/m 0 min 0 min 241 W/m 25,1 km/h (4 Bft) 97,87 %
19.08.2017 10:08 14,8 C 17,2 C 16,1 C 88 % 0 lf 1015,3 hPa 0,0 l/m 2 min 0 min 335 W/m 35,6 km/h (5 Bft) 97,87 %
19.08.2017 10:10 14,8 C 17,8 C 16,7 C 88 % 0 lf 1015,3 hPa 0,0 l/m 2 min 0 min 545 W/m 29,3 km/h (5 Bft) 97,87 %
19.08.2017 10:12 14,8 C 17,2 C 15,6 C 88 % 0 lf 1015,4 hPa 0,0 l/m 0 min 0 min 225 W/m 31,4 km/h (5 Bft) 100,00 %
19.08.2017 10:14 14,9 C 17,8 C 15,6 C 88 % 0 lf 1015,4 hPa 0,0 l/m 0 min 0 min 201 W/m 31,4 km/h (5 Bft) 97,87 %
19.08.2017 10:16 14,9 C 20,0 C 16,7 C 88 % 0 lf 1015,3 hPa 0,0 l/m 2 min 0 min 340 W/m 27,2 km/h (4 Bft) 100,00 %
19.08.2017 10:18 15,0 C 20,0 C 17,8 C 89 % 0 lf 1015,4 hPa 0,0 l/m 2 min 0 min 420 W/m 27,2 km/h (4 Bft) 100,00 %
19.08.2017 10:20 15,1 C 18,9 C 17,2 C 88 % 0 lf 1015,4 hPa 0,0 l/m 2 min 0 min 317 W/m 27,2 km/h (4 Bft) 100,00 %
19.08.2017 10:22 15,2 C 18,9 C 16,7 C 88 % 0 lf 1015,4 hPa 0,0 l/m 2 min 0 min 288 W/m 23,0 km/h (4 Bft) 97,83 %
19.08.2017 10:24 15,2 C 18,3 C 16,7 C 88 % 0 lf 1015,5 hPa 0,0 l/m 0 min 0 min 267 W/m 31,4 km/h (5 Bft) 100,00 %
19.08.2017 10:26 15,3 C 18,3 C 16,7 C 88 % 0 lf 1015,4 hPa 0,0 l/m 2 min 0 min 325 W/m 20,9 km/h (4 Bft) 97,87 %
19.08.2017 10:28 15,4 C 18,3 C 16,7 C 88 % 0 lf 1015,4 hPa 0,0 l/m 2 min 0 min 299 W/m 27,2 km/h (4 Bft) 97,87 %
19.08.2017 10:30 15,4 C 18,3 C 16,7 C 88 % 0 lf 1015,4 hPa 0,0 l/m 2 min 0 min 342 W/m 27,2 km/h (4 Bft) 95,74 %
19.08.2017 10:32 15,4 C 18,3 C 17,2 C 87 % 0 lf 1015,3 hPa 0,0 l/m 2 min 0 min 350 W/m 39,7 km/h (6 Bft) 95,74 %
19.08.2017 10:34 15,6 C 19,4 C 18,3 C 87 % 0 lf 1015,5 hPa 0,0 l/m 2 min 0 min 390 W/m 29,3 km/h (5 Bft) 97,83 %
19.08.2017 10:36 15,6 C 18,3 C 17,8 C 87 % 0 lf 1015,5 hPa 0,0 l/m 2 min 0 min 299 W/m 31,4 km/h (5 Bft) 95,74 %
19.08.2017 10:38 15,7 C 19,4 C 17,8 C 87 % 0 lf 1015,4 hPa 0,0 l/m 0 min 0 min 243 W/m 35,6 km/h (5 Bft) 97,87 %
19.08.2017 10:40 15,8 C 20,0 C 18,9 C 87 % 0 lf 1015,4 hPa 0,0 l/m 0 min 0 min 244 W/m 39,7 km/h (6 Bft) 97,87 %
19.08.2017 10:42 15,8 C 18,9 C 17,8 C 87 % 0 lf 1015,5 hPa 0,0 l/m 0 min 0 min 257 W/m 23,0 km/h (4 Bft) 95,74 %
19.08.2017 10:44 15,8 C 18,3 C 17,8 C 86 % 0 lf 1015,4 hPa 0,0 l/m 2 min 0 min 301 W/m 37,7 km/h (5 Bft) 97,87 %
19.08.2017 10:46 15,9 C 18,9 C 17,8 C 86 % 0 lf 1015,5 hPa 0,0 l/m 2 min 0 min 325 W/m 25,1 km/h (4 Bft) 97,83 %
19.08.2017 10:48 15,9 C 18,9 C 17,8 C 86 % 0 lf 1015,5 hPa 0,0 l/m 2 min 0 min 304 W/m 29,3 km/h (5 Bft) 95,74 %
19.08.2017 10:50 16,0 C 18,9 C 17,2 C 86 % 0 lf 1015,5 hPa 0,0 l/m 0 min 0 min 283 W/m 23,0 km/h (4 Bft) 97,87 %
19.08.2017 10:52 16,0 C 18,3 C 17,2 C 86 % 0 lf 1015,4 hPa 0,0 l/m 0 min 0 min 261 W/m 31,4 km/h (5 Bft) 95,74 %
19.08.2017 10:54 16,0 C 19,4 C 17,8 C 86 % 0 lf 1015,5 hPa 0,0 l/m 0 min 0 min 296 W/m 41,8 km/h (6 Bft) 97,87 %
19.08.2017 10:56 16,1 C 19,4 C 18,3 C 85 % 0 lf 1015,5 hPa 0,0 l/m 2 min 0 min 334 W/m 35,6 km/h (5 Bft) 95,74 %
19.08.2017 10:58 16,1 C 18,9 C 17,8 C 85 % 0 lf 1015,5 hPa 0,0 l/m 0 min 0 min 237 W/m 25,1 km/h (4 Bft) 97,83 %
19.08.2017 11:00 16,1 C 20,6 C 18,3 C 85 % 0 lf 1015,4 hPa 0,0 l/m 0 min 0 min 237 W/m 37,7 km/h (5 Bft) 87,23 %
19.08.2017 11:02 16,2 C 20,6 C 18,9 C 85 % 0 lf 1015,4 hPa 0,0 l/m 2 min 0 min 725 W/m 37,7 km/h (5 Bft) 95,74 %
19.08.2017 11:04 16,3 C 23,3 C 19,4 C 85 % 0 lf 1015,4 hPa 0,0 l/m 2 min 0 min 723 W/m 29,3 km/h (5 Bft) 95,74 %
19.08.2017 11:06 16,4 C 23,3 C 18,3 C 85 % 0 lf 1015,4 hPa 0,0 l/m 2 min 0 min 739 W/m 33,5 km/h (5 Bft) 92,68 %
19.08.2017 11:08 16,4 C 21,1 C 18,3 C 84 % 0 lf 1015,4 hPa 0,0 l/m 2 min 0 min 701 W/m 35,6 km/h (5 Bft) 93,62 %
19.08.2017 11:10 16,5 C 21,7 C 18,9 C 84 % 0 lf 1015,5 hPa 0,0 l/m 2 min 0 min 392 W/m 29,3 km/h (5 Bft) 95,74 %
19.08.2017 11:12 16,5 C 20,0 C 18,3 C 84 % 0 lf 1015,5 hPa 0,0 l/m 2 min 0 min 338 W/m 37,7 km/h (5 Bft) 93,48 %
19.08.2017 11:14 16,5 C 18,3 C 17,2 C 83 % 0 lf 1015,6 hPa 0,0 l/m 0 min 0 min 219 W/m 29,3 km/h (5 Bft) 98,00 %
19.08.2017 11:16 16,4 C 17,8 C 16,7 C 83 % 0 lf 1015,6 hPa 0,0 l/m 0 min 0 min 198 W/m 27,2 km/h (4 Bft) 89,36 %
19.08.2017 11:18 16,4 C 17,2 C 16,7 C 83 % 0 lf 1015,6 hPa 0,0 l/m 0 min 0 min 185 W/m 27,2 km/h (4 Bft) 93,62 %
19.08.2017 11:20 16,4 C 16,7 C 16,7 C 83 % 0 lf 1015,6 hPa 0,0 l/m 0 min 0 min 158 W/m 25,1 km/h (4 Bft) 91,49 %
19.08.2017 11:22 16,3 C 16,7 C 16,7 C 84 % 0 lf 1015,7 hPa 0,0 l/m 0 min 0 min 166 W/m 23,0 km/h (4 Bft) 95,65 %
19.08.2017 11:24 16,3 C 17,2 C 16,7 C 84 % 0 lf 1015,6 hPa 0,0 l/m 0 min 0 min 198 W/m 16,7 km/h (3 Bft) 93,62 %
19.08.2017 11:26 16,4 C 19,4 C 18,3 C 84 % 0 lf 1015,6 hPa 0,0 l/m 0 min 0 min 265 W/m 18,8 km/h (3 Bft) 95,74 %
19.08.2017 11:28 16,4 C 20,0 C 18,9 C 85 % 0 lf 1015,6 hPa 0,0 l/m 2 min 0 min 526 W/m 25,1 km/h (4 Bft) 93,62 %
19.08.2017 11:30 16,4 C 19,4 C 18,9 C 84 % 0 lf 1015,6 hPa 0,0 l/m 0 min 0 min 297 W/m 25,1 km/h (4 Bft) 95,74 %
19.08.2017 11:32 16,5 C 20,6 C 18,9 C 84 % 0 lf 1015,6 hPa 0,0 l/m 0 min 0 min 260 W/m 27,2 km/h (4 Bft) 97,87 %
19.08.2017 11:34 16,6 C 22,8 C 20,0 C 84 % 0 lf 1015,6 hPa 0,0 l/m 2 min 0 min 455 W/m 27,2 km/h (4 Bft) 93,48 %
19.08.2017 11:36 16,7 C 23,9 C 21,1 C 84 % 0 lf 1015,6 hPa 0,0 l/m 2 min 0 min 766 W/m 25,1 km/h (4 Bft) 95,74 %
19.08.2017 11:38 16,9 C 25,0 C 21,7 C 84 % 0 lf 1015,5 hPa 0,0 l/m 2 min 0 min 780 W/m 23,0 km/h (4 Bft) 95,74 %
19.08.2017 11:40 17,0 C 25,6 C 22,2 C 83 % 0 lf 1015,5 hPa 0,0 l/m 2 min 0 min 742 W/m 20,9 km/h (4 Bft) 93,62 %
19.08.2017 11:42 17,2 C 26,1 C 22,8 C 83 % 0 lf 1015,6 hPa 0,0 l/m 2 min 0 min 725 W/m 20,9 km/h (4 Bft) 93,62 %
19.08.2017 11:44 17,3 C 26,1 C 22,8 C 82 % 0 lf 1015,5 hPa 0,0 l/m 2 min 0 min 759 W/m 25,1 km/h (4 Bft) 95,74 %
19.08.2017 11:46 17,5 C 25,0 C 23,3 C 81 % 0 lf 1015,5 hPa 0,0 l/m 2 min 0 min 746 W/m 29,3 km/h (5 Bft) 95,65 %
19.08.2017 11:48 17,6 C 24,4 C 22,8 C 80 % 0 lf 1015,6 hPa 0,0 l/m 2 min 0 min 597 W/m 39,7 km/h (6 Bft) 95,74 %
19.08.2017 11:50 17,8 C 25,0 C 22,8 C 79 % 0 lf 1015,6 hPa 0,0 l/m 2 min 0 min 582 W/m 25,1 km/h (4 Bft) 93,62 %
19.08.2017 11:52 17,9 C 24,4 C 22,2 C 79 % 0 lf 1015,7 hPa 0,0 l/m 2 min 0 min 608 W/m 20,9 km/h (4 Bft) 93,62 %
19.08.2017 11:54 18,0 C 22,8 C 22,2 C 79 % 0 lf 1015,6 hPa 0,0 l/m 2 min 0 min 406 W/m 27,2 km/h (4 Bft) 97,87 %
19.08.2017 11:56 18,1 C 22,2 C 21,1 C 78 % 0 lf 1015,6 hPa 0,0 l/m 0 min 0 min 346 W/m 20,9 km/h (4 Bft) 100,00 %
19.08.2017 11:58 18,1 C 22,8 C 20,6 C 78 % 0 lf 1015,6 hPa 0,0 l/m 0 min 0 min 275 W/m 14,6 km/h (3 Bft) 100,00 %
19.08.2017 12:00 18,1 C 23,3 C 21,1 C 78 % 0 lf 1015,6 hPa 0,0 l/m 0 min 0 min 316 W/m 37,7 km/h (5 Bft) 97,87 %
19.08.2017 12:02 18,2 C 23,9 C 21,7 C 78 % 0 lf 1015,6 hPa 0,0 l/m 0 min 0 min 316 W/m 27,2 km/h (4 Bft) 100,00 %
19.08.2017 12:04 18,3 C 24,4 C 22,2 C 78 % 0 lf 1015,6 hPa 0,0 l/m 2 min 0 min 361 W/m 20,9 km/h (4 Bft) 100,00 %
19.08.2017 12:07 18,4 C 23,3 C 21,7 C 77 % 0 lf 1015,7 hPa 0,0 l/m 3 min 0 min 371 W/m 35,6 km/h (5 Bft) 98,61 %
19.08.2017 12:08 18,4 C 23,3 C 21,7 C 77 % 0 lf 1015,7 hPa 0,0 l/m 1 min 0 min 371 W/m 23,0 km/h (4 Bft) 100,00 %
19.08.2017 12:10 18,5 C 23,9 C 22,8 C 77 % 0 lf 1015,7 hPa 0,0 l/m 2 min 0 min 371 W/m 33,5 km/h (5 Bft) 100,00 %
19.08.2017 12:12 18,6 C 22,8 C 22,2 C 76 % 0 lf 1015,7 hPa 0,0 l/m 2 min 0 min 364 W/m 33,5 km/h (5 Bft) 100,00 %
19.08.2017 12:14 18,5 C 22,2 C 21,1 C 75 % 0 lf 1015,7 hPa 0,0 l/m 0 min 0 min 301 W/m 33,5 km/h (5 Bft) 100,00 %
19.08.2017 12:16 18,4 C 21,1 C 20,0 C 75 % 0 lf 1015,7 hPa 0,0 l/m 0 min 0 min 278 W/m 35,6 km/h (5 Bft) 97,87 %
19.08.2017 12:18 18,3 C 20,0 C 19,4 C 75 % 0 lf 1015,7 hPa 0,0 l/m 0 min 0 min 230 W/m 31,4 km/h (5 Bft) 95,74 %
19.08.2017 12:20 18,3 C 21,7 C 20,0 C 76 % 0 lf 1015,7 hPa 0,0 l/m 0 min 0 min 248 W/m 35,6 km/h (5 Bft) 97,87 %
19.08.2017 12:22 18,3 C 23,3 C 21,7 C 76 % 0 lf 1015,7 hPa 0,0 l/m 0 min 0 min 248 W/m 29,3 km/h (5 Bft) 97,87 %
19.08.2017 12:24 18,3 C 22,2 C 20,0 C 75 % 0 lf 1015,9 hPa 0,0 l/m 0 min 0 min 360 W/m 37,7 km/h (5 Bft) 93,62 %
19.08.2017 12:26 18,2 C 23,3 C 20,6 C 75 % 0 lf 1015,7 hPa 0,0 l/m 2 min 0 min 448 W/m 31,4 km/h (5 Bft) 97,87 %
19.08.2017 12:28 18,3 C 23,9 C 21,1 C 75 % 0 lf 1015,7 hPa 0,0 l/m 2 min 0 min 813 W/m 31,4 km/h (5 Bft) 97,87 %
19.08.2017 12:30 18,4 C 23,3 C 21,1 C 76 % 0 lf 1015,7 hPa 0,0 l/m 2 min 0 min 561 W/m 23,0 km/h (4 Bft) 97,87 %
19.08.2017 12:32 18,4 C 22,2 C 20,0 C 75 % 0 lf 1015,7 hPa 0,0 l/m 0 min 0 min 282 W/m 33,5 km/h (5 Bft) 91,30 %
19.08.2017 12:34 18,4 C 23,9 C 20,6 C 75 % 0 lf 1015,7 hPa 0,0 l/m 2 min 0 min 404 W/m 29,3 km/h (5 Bft) 95,74 %
19.08.2017 12:36 18,4 C 23,9 C 20,6 C 74 % 0 lf 1015,7 hPa 0,0 l/m 2 min 0 min 607 W/m 29,3 km/h (5 Bft) 97,87 %
19.08.2017 12:38 18,6 C 25,0 C 21,1 C 75 % 0 lf 1015,7 hPa 0,0 l/m 2 min 0 min 782 W/m 29,3 km/h (5 Bft) 97,87 %
19.08.2017 12:40 18,7 C 25,0 C 21,1 C 75 % 0 lf 1015,8 hPa 0,0 l/m 2 min 0 min 803 W/m 33,5 km/h (5 Bft) 93,62 %
19.08.2017 12:42 18,8 C 23,9 C 20,6 C 74 % 0 lf 1015,7 hPa 0,0 l/m 2 min 0 min 829 W/m 37,7 km/h (5 Bft) 97,87 %
19.08.2017 12:44 18,8 C 24,4 C 20,6 C 74 % 0 lf 1015,7 hPa 0,0 l/m 2 min 0 min 455 W/m 27,2 km/h (4 Bft) 97,83 %
19.08.2017 12:46 18,9 C 25,6 C 21,1 C 75 % 0 lf 1015,7 hPa 0,0 l/m 2 min 0 min 909 W/m 20,9 km/h (4 Bft) 97,87 %
19.08.2017 12:48 19,0 C 23,3 C 20,6 C 75 % 0 lf 1015,8 hPa 0,0 l/m 2 min 0 min 572 W/m 29,3 km/h (5 Bft) 97,87 %
19.08.2017 12:50 19,0 C 22,2 C 20,0 C 72 % 0 lf 1015,8 hPa 0,0 l/m 0 min 0 min 298 W/m 31,4 km/h (5 Bft) 95,74 %
19.08.2017 12:52 19,0 C 21,7 C 20,0 C 72 % 0 lf 1015,8 hPa 0,0 l/m 0 min 0 min 334 W/m 31,4 km/h (5 Bft) 93,62 %
19.08.2017 12:54 19,0 C 23,9 C 20,6 C 73 % 0 lf 1015,7 hPa 0,0 l/m 0 min 0 min 334 W/m 18,8 km/h (3 Bft) 97,87 %
19.08.2017 12:56 19,1 C 25,6 C 21,1 C 75 % 0 lf 1015,7 hPa 0,0 l/m 0 min 0 min 334 W/m 18,8 km/h (3 Bft) 97,83 %
19.08.2017 12:58 19,2 C 26,1 C 22,2 C 74 % 0 lf 1015,7 hPa 0,0 l/m 2 min 0 min 870 W/m 20,9 km/h (4 Bft) 93,62 %
19.08.2017 13:00 19,3 C 26,7 C 22,8 C 74 % 0 lf 1015,7 hPa 0,0 l/m 2 min 0 min 840 W/m 35,6 km/h (5 Bft) 97,87 %
19.08.2017 13:02 19,4 C 27,8 C 22,8 C 73 % 0 lf 1015,7 hPa 0,0 l/m 2 min 0 min 823 W/m 23,0 km/h (4 Bft) 95,74 %
19.08.2017 13:04 19,5 C 27,2 C 23,9 C 74 % 0 lf 1015,8 hPa 0,0 l/m 2 min 0 min 818 W/m 25,1 km/h (4 Bft) 97,87 %
19.08.2017 13:06 19,6 C 26,1 C 23,3 C 73 % 0 lf 1015,7 hPa 0,0 l/m 2 min 0 min 866 W/m 35,6 km/h (5 Bft) 97,83 %
19.08.2017 13:08 19,7 C 27,2 C 23,3 C 73 % 0 lf 1015,7 hPa 0,0 l/m 2 min 0 min 799 W/m 16,7 km/h (3 Bft) 95,74 %
19.08.2017 13:10 19,7 C 23,9 C 22,8 C 72 % 0 lf 1015,7 hPa 0,0 l/m 2 min 0 min 650 W/m 33,5 km/h (5 Bft) 93,62 %
19.08.2017 13:12 19,7 C 23,9 C 21,7 C 71 % 0 lf 1015,8 hPa 0,0 l/m 2 min 0 min 650 W/m 31,4 km/h (5 Bft) 97,87 %
19.08.2017 13:14 19,7 C 25,0 C 21,7 C 71 % 0 lf 1015,9 hPa 0,0 l/m 2 min 0 min 650 W/m 31,4 km/h (5 Bft) 97,87 %
19.08.2017 13:16 19,7 C 25,6 C 22,2 C 71 % 0 lf 1015,8 hPa 0,0 l/m 2 min 0 min 1002 W/m 37,7 km/h (5 Bft) 97,87 %
19.08.2017 13:18 19,7 C 23,9 C 21,7 C 70 % 0 lf 1015,9 hPa 0,0 l/m 2 min 0 min 591 W/m 41,8 km/h (6 Bft) 97,83 %
19.08.2017 13:20 19,7 C 23,9 C 21,7 C 70 % 0 lf 1015,9 hPa 0,0 l/m 0 min 0 min 346 W/m 27,2 km/h (4 Bft) 95,74 %
19.08.2017 13:22 19,7 C 24,4 C 21,7 C 70 % 0 lf 1015,8 hPa 0,0 l/m 0 min 0 min 346 W/m 29,3 km/h (5 Bft) 95,74 %
19.08.2017 13:24 19,7 C 23,3 C 21,1 C 71 % 0 lf 1015,8 hPa 0,0 l/m 0 min 0 min 346 W/m 29,3 km/h (5 Bft) 95,74 %
19.08.2017 13:26 19,7 C 22,8 C 20,6 C 70 % 0 lf 1015,8 hPa 0,0 l/m 0 min 0 min 276 W/m 29,3 km/h (5 Bft) 97,87 %
19.08.2017 13:28 19,6 C 21,7 C 20,6 C 70 % 0 lf 1015,9 hPa 0,0 l/m 0 min 0 min 354 W/m 33,5 km/h (5 Bft) 97,73 %
19.08.2017 13:30 19,5 C 21,7 C 20,6 C 69 % 0 lf 1015,9 hPa 0,0 l/m 2 min 0 min 386 W/m 35,6 km/h (5 Bft) 93,62 %
19.08.2017 13:32 19,4 C 21,7 C 20,6 C 69 % 0 lf 1015,8 hPa 0,0 l/m 0 min 0 min 375 W/m 23,0 km/h (4 Bft) 95,65 %
19.08.2017 13:34 19,3 C 21,1 C 20,6 C 70 % 0 lf 1015,9 hPa 0,0 l/m 2 min 0 min 380 W/m 31,4 km/h (5 Bft) 97,87 %
19.08.2017 13:36 19,3 C 21,1 C 20,6 C 69 % 0 lf 1015,9 hPa 0,0 l/m 0 min 0 min 327 W/m 29,3 km/h (5 Bft) 95,74 %
19.08.2017 13:38 19,2 C 21,7 C 20,0 C 69 % 0 lf 1015,9 hPa 0,0 l/m 0 min 0 min 345 W/m 35,6 km/h (5 Bft) 95,74 %
19.08.2017 13:40 19,2 C 22,2 C 20,0 C 69 % 0 lf 1015,9 hPa 0,0 l/m 2 min 0 min 448 W/m 37,7 km/h (5 Bft) 93,62 %
19.08.2017 13:42 19,2 C 22,2 C 20,6 C 70 % 0 lf 1015,9 hPa 0,0 l/m 2 min 0 min 443 W/m 33,5 km/h (5 Bft) 93,62 %
19.08.2017 13:44 19,2 C 22,8 C 20,6 C 70 % 0 lf 1015,9 hPa 0,0 l/m 2 min 0 min 431 W/m 33,5 km/h (5 Bft) 93,48 %
19.08.2017 13:46 19,3 C 22,8 C 21,1 C 70 % 0 lf 1015,9 hPa 0,0 l/m 2 min 0 min 871 W/m 29,3 km/h (5 Bft) 95,74 %
19.08.2017 13:48 19,3 C 24,4 C 21,1 C 70 % 0 lf 1015,9 hPa 0,0 l/m 0 min 0 min 362 W/m 27,2 km/h (4 Bft) 97,87 %
19.08.2017 13:50 19,4 C 25,6 C 21,7 C 71 % 0 lf 1015,9 hPa 0,0 l/m 2 min 0 min 638 W/m 25,1 km/h (4 Bft) 97,87 %
19.08.2017 13:52 19,6 C 26,7 C 21,7 C 71 % 0 lf 1015,8 hPa 0,0 l/m 2 min 0 min 976 W/m 25,1 km/h (4 Bft) 95,74 %
19.08.2017 13:54 19,7 C 26,1 C 21,7 C 70 % 0 lf 1015,8 hPa 0,0 l/m 2 min 0 min 958 W/m 23,0 km/h (4 Bft) 97,87 %
19.08.2017 13:56 19,9 C 26,7 C 21,7 C 70 % 0 lf 1015,9 hPa 0,0 l/m 0 min 0 min 344 W/m 14,6 km/h (3 Bft) 95,65 %
19.08.2017 13:58 20,0 C 25,0 C 21,7 C 70 % 0 lf 1015,9 hPa 0,0 l/m 0 min 0 min 271 W/m 27,2 km/h (4 Bft) 97,87 %
19.08.2017 14:00 20,1 C 25,0 C 21,7 C 68 % 0 lf 1016,0 hPa 0,0 l/m 0 min 0 min 274 W/m 27,2 km/h (4 Bft) 97,87 %
19.08.2017 14:02 20,1 C 26,1 C 22,2 C 69 % 0 lf 1016,0 hPa 0,0 l/m 0 min 0 min 274 W/m 25,1 km/h (4 Bft) 97,87 %
19.08.2017 14:04 20,2 C 24,4 C 21,7 C 67 % 0 lf 1016,0 hPa 0,0 l/m 0 min 0 min 285 W/m 31,4 km/h (5 Bft) 100,00 %
19.08.2017 14:06 20,1 C 22,8 C 20,6 C 66 % 0 lf 1016,1 hPa 0,0 l/m 0 min 0 min 290 W/m 35,6 km/h (5 Bft) 97,87 %
19.08.2017 14:08 20,0 C 21,7 C 20,6 C 66 % 0 lf 1016,1 hPa 0,0 l/m 0 min 0 min 231 W/m 31,4 km/h (5 Bft) 97,83 %
19.08.2017 14:10 19,9 C 20,6 C 19,4 C 66 % 0 lf 1016,2 hPa 0,0 l/m 0 min 0 min 195 W/m 25,1 km/h (4 Bft) 95,74 %
19.08.2017 14:12 19,8 C 20,6 C 19,4 C 67 % 0 lf 1016,3 hPa 0,0 l/m 0 min 0 min 198 W/m 29,3 km/h (5 Bft) 95,74 %
19.08.2017 14:14 19,7 C 21,1 C 19,4 C 67 % 0 lf 1016,3 hPa 0,0 l/m 0 min 0 min 248 W/m 27,2 km/h (4 Bft) 95,74 %
19.08.2017 14:16 19,6 C 21,7 C 20,0 C 67 % 0 lf 1016,3 hPa 0,0 l/m 2 min 0 min 392 W/m 31,4 km/h (5 Bft) 97,87 %
19.08.2017 14:18 19,6 C 22,2 C 20,6 C 69 % 0 lf 1016,2 hPa 0,0 l/m 2 min 0 min 406 W/m 23,0 km/h (4 Bft) 97,83 %
19.08.2017 14:20 19,6 C 22,2 C 20,6 C 68 % 0 lf 1016,3 hPa 0,0 l/m 0 min 0 min 288 W/m 20,9 km/h (4 Bft) 95,74 %
19.08.2017 14:22 19,6 C 21,7 C 20,6 C 69 % 0 lf 1016,3 hPa 0,0 l/m 0 min 0 min 328 W/m 20,9 km/h (4 Bft) 97,87 %
19.08.2017 14:24 19,6 C 23,9 C 22,2 C 70 % 0 lf 1016,3 hPa 0,0 l/m 0 min 0 min 359 W/m 29,3 km/h (5 Bft) 95,74 %
19.08.2017 14:26 19,8 C 25,0 C 23,3 C 71 % 0 lf 1016,3 hPa 0,0 l/m 0 min 0 min 359 W/m 23,0 km/h (4 Bft) 97,87 %
19.08.2017 14:28 19,8 C 23,9 C 22,8 C 70 % 0 lf 1016,3 hPa 0,0 l/m 0 min 0 min 358 W/m 23,0 km/h (4 Bft) 97,87 %
19.08.2017 14:30 19,9 C 22,8 C 22,2 C 69 % 0 lf 1016,3 hPa 0,0 l/m 0 min 0 min 318 W/m 29,3 km/h (5 Bft) 97,83 %
19.08.2017 14:32 19,9 C 21,7 C 21,1 C 69 % 0 lf 1016,4 hPa 0,0 l/m 0 min 0 min 269 W/m 23,0 km/h (4 Bft) 97,87 %
19.08.2017 14:34 19,8 C 21,1 C 20,6 C 69 % 0 lf 1016,4 hPa 0,0 l/m 0 min 0 min 242 W/m 27,2 km/h (4 Bft) 97,87 %
19.08.2017 14:36 19,8 C 20,6 C 20,0 C 68 % 0 lf 1016,4 hPa 0,0 l/m 0 min 0 min 210 W/m 25,1 km/h (4 Bft) 96,00 %
19.08.2017 14:38 19,7 C 20,0 C 20,0 C 68 % 0 lf 1016,5 hPa 0,0 l/m 0 min 0 min 181 W/m 20,9 km/h (4 Bft) 97,87 %
19.08.2017 14:40 19,6 C 20,0 C 19,4 C 69 % 0 lf 1016,5 hPa 0,0 l/m 0 min 0 min 156 W/m 31,4 km/h (5 Bft) 93,48 %
19.08.2017 14:42 19,5 C 19,4 C 18,9 C 69 % 2 lf 1016,6 hPa 0,0 l/m 0 min 2 min 192 W/m 35,6 km/h (5 Bft) 95,74 %
19.08.2017 14:44 19,4 C 19,4 C 19,4 C 70 % 0 lf 1016,5 hPa 0,0 l/m 0 min 2 min 293 W/m 29,3 km/h (5 Bft) 95,74 %
19.08.2017 14:46 19,3 C 20,6 C 20,0 C 71 % 0 lf 1016,5 hPa 0,0 l/m 2 min 0 min 388 W/m 20,9 km/h (4 Bft) 97,87 %
19.08.2017 14:48 19,2 C 20,6 C 20,0 C 72 % 0 lf 1016,5 hPa 0,0 l/m 0 min 0 min 365 W/m 23,0 km/h (4 Bft) 97,87 %
19.08.2017 14:50 19,2 C 20,6 C 20,6 C 72 % 0 lf 1016,6 hPa 0,0 l/m 2 min 0 min 367 W/m 18,8 km/h (3 Bft) 95,74 %
19.08.2017 14:52 19,2 C 22,8 C 22,8 C 72 % 0 lf 1016,6 hPa 0,0 l/m 2 min 0 min 415 W/m 18,8 km/h (3 Bft) 95,65 %
19.08.2017 14:54 19,2 C 25,0 C 25,6 C 73 % 0 lf 1016,5 hPa 0,0 l/m 2 min 0 min 864 W/m 23,0 km/h (4 Bft) 100,00 %
19.08.2017 14:56 19,4 C 26,1 C 26,7 C 74 % 0 lf 1016,5 hPa 0,0 l/m 2 min 0 min 914 W/m 25,1 km/h (4 Bft) 95,74 %
19.08.2017 14:58 19,5 C 25,6 C 25,6 C 74 % 0 lf 1016,6 hPa 0,0 l/m 2 min 0 min 912 W/m 29,3 km/h (5 Bft) 97,87 %
19.08.2017 15:00 19,6 C 25,6 C 26,1 C 72 % 0 lf 1016,6 hPa 0,0 l/m 2 min 0 min 891 W/m 18,8 km/h (3 Bft) 97,87 %
19.08.2017 15:02 19,7 C 23,9 C 24,4 C 71 % 0 lf 1016,6 hPa 0,0 l/m 2 min 0 min 795 W/m 29,3 km/h (5 Bft) 95,74 %
19.08.2017 15:04 19,7 C 22,8 C 23,3 C 71 % 0 lf 1016,6 hPa 0,0 l/m 0 min 0 min 324 W/m 25,1 km/h (4 Bft) 93,48 %
19.08.2017 15:06 19,7 C 22,8 C 22,8 C 71 % 0 lf 1016,6 hPa 0,0 l/m 2 min 0 min 368 W/m 31,4 km/h (5 Bft) 95,74 %
19.08.2017 15:08 19,7 C 22,8 C 22,8 C 71 % 0 lf 1016,6 hPa 0,0 l/m 2 min 0 min 543 W/m 29,3 km/h (5 Bft) 97,87 %
19.08.2017 15:10 19,7 C 22,2 C 21,7 C 69 % 0 lf 1016,6 hPa 0,0 l/m 2 min 0 min 404 W/m 31,4 km/h (5 Bft) 93,62 %
19.08.2017 15:12 19,7 C 22,2 C 21,7 C 70 % 0 lf 1016,6 hPa 0,0 l/m 2 min 0 min 358 W/m 27,2 km/h (4 Bft) 93,62 %
19.08.2017 15:14 19,6 C 21,7 C 21,1 C 69 % 0 lf 1016,6 hPa 0,0 l/m 0 min 0 min 342 W/m 27,2 km/h (4 Bft) 93,62 %
19.08.2017 15:16 19,6 C 23,3 C 22,8 C 70 % 0 lf 1016,7 hPa 0,0 l/m 2 min 0 min 533 W/m 37,7 km/h (5 Bft) 95,65 %
19.08.2017 15:18 19,7 C 25,0 C 25,0 C 71 % 0 lf 1016,7 hPa 0,0 l/m 2 min 0 min 910 W/m 35,6 km/h (5 Bft) 95,74 %
19.08.2017 15:20 19,7 C 25,0 C 25,6 C 69 % 0 lf 1016,7 hPa 0,0 l/m 2 min 0 min 866 W/m 35,6 km/h (5 Bft) 95,74 %
19.08.2017 15:22 19,8 C 25,0 C 25,6 C 69 % 0 lf 1016,7 hPa 0,0 l/m 2 min 0 min 831 W/m 25,1 km/h (4 Bft) 97,87 %
19.08.2017 15:24 19,9 C 25,6 C 25,6 C 70 % 0 lf 1016,7 hPa 0,0 l/m 2 min 0 min 490 W/m 14,6 km/h (3 Bft) 97,87 %
19.08.2017 15:26 20,0 C 24,4 C 24,4 C 69 % 0 lf 1016,7 hPa 0,0 l/m 2 min 0 min 535 W/m 31,4 km/h (5 Bft) 97,87 %
19.08.2017 15:28 20,1 C 25,0 C 24,4 C 69 % 0 lf 1016,7 hPa 0,0 l/m 2 min 0 min 366 W/m 20,9 km/h (4 Bft) 97,83 %
19.08.2017 15:30 20,2 C 23,9 C 23,3 C 68 % 0 lf 1016,6 hPa 0,0 l/m 2 min 0 min 374 W/m 27,2 km/h (4 Bft) 91,49 %
19.08.2017 15:32 20,2 C 23,9 C 23,3 C 68 % 0 lf 1016,6 hPa 0,0 l/m 0 min 0 min 329 W/m 29,3 km/h (5 Bft) 97,87 %
19.08.2017 15:34 20,2 C 23,3 C 22,8 C 67 % 0 lf 1016,6 hPa 0,0 l/m 0 min 0 min 302 W/m 33,5 km/h (5 Bft) 95,74 %
19.08.2017 15:36 20,2 C 23,9 C 23,3 C 68 % 0 lf 1016,5 hPa 0,0 l/m 0 min 0 min 321 W/m 35,6 km/h (5 Bft) 93,62 %
19.08.2017 15:38 20,2 C 25,0 C 24,4 C 69 % 0 lf 1016,6 hPa 0,0 l/m 2 min 0 min 761 W/m 29,3 km/h (5 Bft) 93,62 %
19.08.2017 15:40 20,2 C 25,6 C 23,9 C 67 % 0 lf 1016,6 hPa 0,0 l/m 2 min 0 min 785 W/m 35,6 km/h (5 Bft) 95,65 %
19.08.2017 15:42 20,3 C 25,6 C 23,3 C 68 % 0 lf 1016,7 hPa 0,0 l/m 2 min 0 min 801 W/m 27,2 km/h (4 Bft) 95,74 %
19.08.2017 15:44 20,3 C 26,1 C 22,8 C 66 % 0 lf 1016,6 hPa 0,0 l/m 2 min 0 min 796 W/m 33,5 km/h (5 Bft) 93,62 %
19.08.2017 15:46 20,4 C 26,1 C 22,8 C 67 % 0 lf 1016,8 hPa 0,0 l/m 2 min 0 min 808 W/m 29,3 km/h (5 Bft) 95,74 %
19.08.2017 15:48 20,5 C 26,1 C 22,8 C 67 % 0 lf 1016,7 hPa 0,0 l/m 2 min 0 min 811 W/m 35,6 km/h (5 Bft) 91,49 %
19.08.2017 15:50 20,6 C 25,0 C 22,8 C 66 % 0 lf 1016,7 hPa 0,0 l/m 2 min 0 min 782 W/m 27,2 km/h (4 Bft) 91,49 %
19.08.2017 15:52 20,6 C 23,9 C 22,2 C 66 % 0 lf 1016,7 hPa 0,0 l/m 2 min 0 min 355 W/m 23,0 km/h (4 Bft) 93,48 %
19.08.2017 15:54 20,6 C 22,8 C 21,7 C 66 % 0 lf 1016,8 hPa 0,0 l/m 0 min 0 min 265 W/m 16,7 km/h (3 Bft) 91,49 %
19.08.2017 15:56 20,6 C 21,7 C 21,1 C 67 % 0 lf 1016,8 hPa 0,0 l/m 0 min 0 min 221 W/m 23,0 km/h (4 Bft) 93,62 %
19.08.2017 15:58 20,5 C 20,6 C 20,6 C 66 % 0 lf 1016,9 hPa 0,0 l/m 0 min 0 min 184 W/m 27,2 km/h (4 Bft) 93,62 %
19.08.2017 16:00 20,3 C 20,0 C 20,0 C 66 % 0 lf 1016,8 hPa 0,0 l/m 0 min 0 min 190 W/m 23,0 km/h (4 Bft) 91,49 %
19.08.2017 16:02 20,2 C 20,0 C 20,0 C 67 % 0 lf 1016,8 hPa 0,0 l/m 0 min 0 min 185 W/m 18,8 km/h (3 Bft) 93,62 %
19.08.2017 16:04 20,1 C 20,0 C 20,0 C 68 % 0 lf 1016,8 hPa 0,0 l/m 0 min 0 min 176 W/m 18,8 km/h (3 Bft) 91,30 %
19.08.2017 16:06 20,0 C 20,0 C 19,4 C 68 % 0 lf 1016,8 hPa 0,0 l/m 0 min 0 min 177 W/m 18,8 km/h (3 Bft) 93,62 %
19.08.2017 16:08 19,9 C 20,0 C 19,4 C 68 % 0 lf 1016,9 hPa 0,0 l/m 0 min 0 min 149 W/m 27,2 km/h (4 Bft) 95,74 %
19.08.2017 16:10 19,8 C 19,4 C 18,9 C 68 % 0 lf 1016,8 hPa 0,0 l/m 0 min 0 min 133 W/m 27,2 km/h (4 Bft) 95,74 %
19.08.2017 16:12 19,7 C 19,4 C 18,9 C 69 % 0 lf 1016,9 hPa 0,0 l/m 0 min 2 min 119 W/m 25,1 km/h (4 Bft) 93,62 %
19.08.2017 16:14 19,6 C 19,4 C 18,3 C 70 % 0 lf 1016,9 hPa 0,0 l/m 0 min 0 min 115 W/m 31,4 km/h (5 Bft) 93,48 %
19.08.2017 16:16 19,4 C 18,9 C 18,3 C 70 % 0 lf 1016,9 hPa 0,0 l/m 0 min 0 min 132 W/m 23,0 km/h (4 Bft) 91,49 %
19.08.2017 16:18 19,3 C 18,9 C 18,3 C 71 % 0 lf 1016,9 hPa 0,0 l/m 0 min 0 min 178 W/m 31,4 km/h (5 Bft) 97,87 %
19.08.2017 16:20 19,1 C 19,4 C 18,3 C 71 % 4 lf 1017,0 hPa 0,0 l/m 0 min 2 min 252 W/m 29,3 km/h (5 Bft) 95,74 %
19.08.2017 16:22 19,0 C 19,4 C 17,8 C 72 % 7 lf 1017,0 hPa 0,0 l/m 0 min 2 min 234 W/m 31,4 km/h (5 Bft) 93,62 %
19.08.2017 16:24 18,8 C 18,9 C 17,2 C 73 % 0 lf 1017,1 hPa 0,0 l/m 0 min 2 min 230 W/m 31,4 km/h (5 Bft) 93,62 %
19.08.2017 16:26 18,8 C 18,9 C 17,8 C 74 % 0 lf 1017,1 hPa 0,0 l/m 0 min 0 min 210 W/m 25,1 km/h (4 Bft) 97,83 %
19.08.2017 16:28 18,7 C 18,9 C 17,8 C 74 % 0 lf 1017,2 hPa 0,0 l/m 0 min 0 min 169 W/m 27,2 km/h (4 Bft) 97,87 %
19.08.2017 16:30 18,6 C 18,9 C 17,8 C 74 % 0 lf 1017,1 hPa 0,0 l/m 0 min 0 min 129 W/m 25,1 km/h (4 Bft) 97,87 %
19.08.2017 16:32 18,5 C 18,3 C 17,8 C 75 % 0 lf 1017,2 hPa 0,0 l/m 0 min 0 min 110 W/m 27,2 km/h (4 Bft) 100,00 %
19.08.2017 16:34 18,4 C 18,3 C 17,8 C 75 % 2 lf 1017,2 hPa 0,0 l/m 0 min 0 min 110 W/m 23,0 km/h (4 Bft) 100,00 %
19.08.2017 16:36 18,3 C 17,8 C 16,7 C 76 % 15 lf 1017,2 hPa 0,0 l/m 0 min 2 min 114 W/m 20,9 km/h (4 Bft) 100,00 %
19.08.2017 16:38 18,3 C 17,8 C 16,1 C 77 % 15 lf 1017,2 hPa 0,0 l/m 0 min 2 min 116 W/m 14,6 km/h (3 Bft) 100,00 %
19.08.2017 16:40 18,2 C 17,2 C 15,6 C 79 % 15 lf 1017,3 hPa 0,0 l/m 0 min 2 min 123 W/m 16,7 km/h (3 Bft) 95,74 %
19.08.2017 16:42 18,2 C 16,1 C 15,0 C 79 % 15 lf 1017,2 hPa 0,0 l/m 0 min 2 min 168 W/m 20,9 km/h (4 Bft) 97,87 %
19.08.2017 16:44 18,1 C 16,1 C 15,6 C 80 % 15 lf 1017,2 hPa 0,0 l/m 0 min 2 min 220 W/m 20,9 km/h (4 Bft) 100,00 %
19.08.2017 16:46 18,1 C 16,1 C 15,6 C 81 % 15 lf 1017,3 hPa 0,0 l/m 0 min 2 min 274 W/m 16,7 km/h (3 Bft) 100,00 %
19.08.2017 16:48 18,0 C 16,7 C 16,1 C 82 % 15 lf 1017,2 hPa 0,2 l/m 2 min 0 min 332 W/m 18,8 km/h (3 Bft) 100,00 %
19.08.2017 16:50 17,9 C 17,2 C 16,1 C 83 % 15 lf 1017,2 hPa 0,0 l/m 2 min 0 min 323 W/m 18,8 km/h (3 Bft) 100,00 %
19.08.2017 16:52 17,9 C 17,2 C 16,7 C 83 % 15 lf 1017,2 hPa 0,0 l/m 2 min 0 min 286 W/m 18,8 km/h (3 Bft) 100,00 %
19.08.2017 16:54 17,9 C 17,2 C 16,1 C 84 % 15 lf 1017,3 hPa 0,0 l/m 0 min 0 min 250 W/m 18,8 km/h (3 Bft) 97,87 %
19.08.2017 16:56 17,9 C 17,8 C 16,1 C 84 % 15 lf 1017,3 hPa 0,0 l/m 0 min 0 min 239 W/m 16,7 km/h (3 Bft) 100,00 %
19.08.2017 16:58 17,8 C 18,3 C 16,7 C 84 % 15 lf 1017,3 hPa 0,0 l/m 2 min 0 min 298 W/m 20,9 km/h (4 Bft) 100,00 %
19.08.2017 17:00 17,9 C 19,4 C 16,7 C 85 % 7 lf 1017,3 hPa 0,0 l/m 2 min 0 min 478 W/m 20,9 km/h (4 Bft) 100,00 %
19.08.2017 17:02 17,9 C 20,0 C 16,7 C 85 % 0 lf 1017,2 hPa 0,0 l/m 2 min 0 min 667 W/m 23,0 km/h (4 Bft) 97,83 %
19.08.2017 17:04 18,0 C 19,4 C 16,7 C 85 % 0 lf 1017,2 hPa 0,0 l/m 2 min 0 min 478 W/m 20,9 km/h (4 Bft) 100,00 %
19.08.2017 17:06 18,1 C 20,0 C 16,7 C 85 % 0 lf 1017,2 hPa 0,0 l/m 0 min 0 min 255 W/m 14,6 km/h (3 Bft) 100,00 %
19.08.2017 17:08 18,1 C 19,4 C 16,7 C 84 % 0 lf 1017,1 hPa 0,0 l/m 2 min 0 min 537 W/m 18,8 km/h (3 Bft) 97,87 %
19.08.2017 17:10 18,1 C 19,4 C 16,1 C 84 % 0 lf 1017,2 hPa 0,0 l/m 0 min 0 min 219 W/m 16,7 km/h (3 Bft) 97,87 %
19.08.2017 17:12 18,1 C 19,4 C 16,1 C 83 % 0 lf 1017,2 hPa 0,0 l/m 0 min 0 min 178 W/m 12,6 km/h (3 Bft) 95,65 %
19.08.2017 17:14 18,1 C 19,4 C 16,1 C 83 % 0 lf 1017,2 hPa 0,0 l/m 0 min 0 min 170 W/m 12,6 km/h (3 Bft) 100,00 %
19.08.2017 17:16 18,1 C 19,4 C 16,7 C 83 % 0 lf 1017,2 hPa 0,0 l/m 0 min 0 min 215 W/m 10,5 km/h (2 Bft) 100,00 %
19.08.2017 17:18 18,1 C 19,4 C 17,2 C 83 % 0 lf 1017,2 hPa 0,0 l/m 0 min 0 min 218 W/m 8,4 km/h (2 Bft) 100,00 %
19.08.2017 17:20 18,1 C 19,4 C 17,8 C 82 % 0 lf 1017,2 hPa 0,0 l/m 0 min 0 min 206 W/m 20,9 km/h (4 Bft) 100,00 %
19.08.2017 17:22 18,1 C 18,9 C 17,8 C 81 % 0 lf 1017,3 hPa 0,0 l/m 0 min 0 min 208 W/m 18,8 km/h (3 Bft) 100,00 %
19.08.2017 17:24 18,1 C 18,9 C 17,8 C 81 % 0 lf 1017,3 hPa 0,0 l/m 0 min 0 min 214 W/m 16,7 km/h (3 Bft) 97,83 %
19.08.2017 17:26 18,1 C 18,9 C 18,3 C 81 % 0 lf 1017,3 hPa 0,0 l/m 0 min 0 min 199 W/m 18,8 km/h (3 Bft) 100,00 %
19.08.2017 17:28 18,1 C 18,9 C 18,3 C 81 % 0 lf 1017,3 hPa 0,0 l/m 0 min 0 min 175 W/m 18,8 km/h (3 Bft) 97,87 %
19.08.2017 17:30 18,1 C 18,9 C 18,3 C 81 % 0 lf 1017,4 hPa 0,0 l/m 0 min 0 min 159 W/m 12,6 km/h (3 Bft) 97,87 %
19.08.2017 17:32 18,1 C 18,9 C 18,3 C 81 % 0 lf 1017,4 hPa 0,0 l/m 0 min 0 min 147 W/m 14,6 km/h (3 Bft) 100,00 %
19.08.2017 17:34 18,1 C 18,3 C 17,8 C 81 % 0 lf 1017,5 hPa 0,0 l/m 0 min 0 min 135 W/m 18,8 km/h (3 Bft) 95,74 %
19.08.2017 17:36 18,1 C 18,3 C 17,8 C 80 % 0 lf 1017,5 hPa 0,0 l/m 0 min 0 min 127 W/m 16,7 km/h (3 Bft) 97,83 %
19.08.2017 17:38 18,0 C 18,3 C 17,8 C 80 % 0 lf 1017,5 hPa 0,0 l/m 0 min 0 min 121 W/m 10,5 km/h (2 Bft) 97,87 %
19.08.2017 17:40 18,0 C 18,3 C 17,8 C 80 % 0 lf 1017,5 hPa 0,0 l/m 0 min 0 min 117 W/m 20,9 km/h (4 Bft) 95,74 %
19.08.2017 17:42 17,9 C 18,3 C 17,2 C 80 % 0 lf 1017,4 hPa 0,0 l/m 0 min 0 min 117 W/m 14,6 km/h (3 Bft) 97,87 %
19.08.2017 17:44 17,9 C 18,3 C 17,2 C 80 % 0 lf 1017,4 hPa 0,0 l/m 0 min 0 min 128 W/m 16,7 km/h (3 Bft) 93,62 %
19.08.2017 17:46 17,9 C 18,3 C 17,8 C 80 % 0 lf 1017,4 hPa 0,0 l/m 0 min 0 min 149 W/m 14,6 km/h (3 Bft) 97,87 %
19.08.2017 17:48 17,9 C 18,3 C 17,8 C 80 % 0 lf 1017,4 hPa 0,0 l/m 0 min 0 min 156 W/m 12,6 km/h (3 Bft) 97,83 %
19.08.2017 17:50 17,9 C 18,3 C 17,8 C 80 % 0 lf 1017,4 hPa 0,0 l/m 0 min 0 min 146 W/m 18,8 km/h (3 Bft) 95,74 %
19.08.2017 17:52 17,8 C 18,3 C 17,8 C 80 % 0 lf 1017,4 hPa 0,0 l/m 0 min 0 min 134 W/m 16,7 km/h (3 Bft) 93,62 %
19.08.2017 17:54 17,8 C 17,8 C 17,8 C 80 % 0 lf 1017,4 hPa 0,0 l/m 0 min 0 min 125 W/m 14,6 km/h (3 Bft) 95,74 %
19.08.2017 17:56 17,8 C 17,8 C 17,8 C 79 % 0 lf 1017,3 hPa 0,0 l/m 0 min 0 min 119 W/m 16,7 km/h (3 Bft) 93,62 %
19.08.2017 17:58 17,8 C 17,8 C 17,2 C 80 % 0 lf 1017,4 hPa 0,0 l/m 0 min 0 min 116 W/m 12,6 km/h (3 Bft) 95,74 %
19.08.2017 18:00 17,8 C 18,3 C 17,8 C 80 % 0 lf 1017,4 hPa 0,0 l/m 0 min 0 min 117 W/m 10,5 km/h (2 Bft) 93,48 %
19.08.2017 18:02 17,7 C 18,3 C 17,8 C 80 % 0 lf 1017,4 hPa 0,0 l/m 0 min 0 min 124 W/m 16,7 km/h (3 Bft) 95,74 %
19.08.2017 18:04 17,7 C 18,3 C 17,8 C 80 % 0 lf 1017,5 hPa 0,0 l/m 0 min 0 min 119 W/m 14,6 km/h (3 Bft) 95,74 %
19.08.2017 18:06 17,7 C 18,3 C 17,8 C 80 % 0 lf 1017,4 hPa 0,0 l/m 0 min 0 min 113 W/m 12,6 km/h (3 Bft) 95,74 %
19.08.2017 18:10 17,7 C 17,8 C 17,2 C 80 % 0 lf 1017,5 hPa 0,0 l/m 0 min 0 min 108 W/m 14,6 km/h (3 Bft) 95,74 %
19.08.2017 18:12 17,7 C 18,3 C 17,2 C 80 % 0 lf 1017,5 hPa 0,0 l/m 0 min 0 min 107 W/m 14,6 km/h (3 Bft) 95,65 %
19.08.2017 18:14 17,7 C 17,8 C 17,2 C 80 % 0 lf 1017,5 hPa 0,0 l/m 0 min 0 min 101 W/m 14,6 km/h (3 Bft) 95,74 %
19.08.2017 18:16 17,7 C 17,8 C 17,2 C 80 % 0 lf 1017,6 hPa 0,0 l/m 0 min 0 min 88 W/m 10,5 km/h (2 Bft) 93,62 %
19.08.2017 18:18 17,7 C 17,8 C 17,2 C 80 % 0 lf 1017,5 hPa 0,0 l/m 0 min 0 min 81 W/m 14,6 km/h (3 Bft) 91,49 %
19.08.2017 18:20 17,7 C 17,8 C 17,2 C 80 % 0 lf 1017,5 hPa 0,0 l/m 0 min 0 min 67 W/m 16,7 km/h (3 Bft) 91,49 %
19.08.2017 18:22 17,7 C 17,8 C 16,7 C 80 % 0 lf 1017,5 hPa 0,0 l/m 0 min 0 min 49 W/m 14,6 km/h (3 Bft) 93,62 %
19.08.2017 18:24 17,6 C 17,2 C 16,7 C 80 % 0 lf 1017,5 hPa 0,0 l/m 0 min 0 min 46 W/m 18,8 km/h (3 Bft) 91,30 %
19.08.2017 18:26 17,6 C 17,2 C 16,7 C 80 % 0 lf 1017,6 hPa 0,0 l/m 0 min 0 min 50 W/m 18,8 km/h (3 Bft) 91,49 %
19.08.2017 18:28 17,6 C 17,2 C 16,7 C 80 % 0 lf 1017,5 hPa 0,0 l/m 0 min 0 min 68 W/m 12,6 km/h (3 Bft) 93,62 %
19.08.2017 18:30 17,5 C 17,2 C 16,7 C 80 % 0 lf 1017,5 hPa 0,0 l/m 0 min 0 min 82 W/m 12,6 km/h (3 Bft) 93,62 %
19.08.2017 18:32 17,5 C 17,2 C 16,7 C 80 % 0 lf 1017,5 hPa 0,0 l/m 0 min 0 min 87 W/m 14,6 km/h (3 Bft) 93,62 %
19.08.2017 18:34 17,5 C 17,2 C 16,7 C 81 % 0 lf 1017,5 hPa 0,0 l/m 0 min 0 min 89 W/m 12,6 km/h (3 Bft) 91,49 %
19.08.2017 18:36 17,4 C 17,2 C 16,7 C 81 % 0 lf 1017,6 hPa 0,0 l/m 0 min 0 min 95 W/m 12,6 km/h (3 Bft) 97,83 %
19.08.2017 18:38 17,4 C 17,2 C 16,7 C 81 % 0 lf 1017,5 hPa 0,0 l/m 0 min 0 min 112 W/m 8,4 km/h (2 Bft) 93,62 %
19.08.2017 18:40 17,4 C 17,2 C 16,7 C 81 % 2 lf 1017,6 hPa 0,0 l/m 0 min 0 min 127 W/m 16,7 km/h (3 Bft) 93,62 %
19.08.2017 18:42 17,4 C 17,2 C 16,7 C 81 % 1 lf 1017,5 hPa 0,0 l/m 0 min 2 min 124 W/m 20,9 km/h (4 Bft) 95,74 %
19.08.2017 18:44 17,3 C 17,2 C 16,7 C 81 % 0 lf 1017,5 hPa 0,0 l/m 0 min 2 min 106 W/m 12,6 km/h (3 Bft) 95,74 %
19.08.2017 18:46 17,3 C 17,2 C 16,1 C 81 % 0 lf 1017,6 hPa 0,0 l/m 0 min 0 min 90 W/m 16,7 km/h (3 Bft) 91,30 %
19.08.2017 18:48 17,3 C 17,2 C 16,7 C 81 % 0 lf 1017,6 hPa 0,0 l/m 0 min 0 min 80 W/m 18,8 km/h (3 Bft) 95,74 %
19.08.2017 18:50 17,2 C 17,2 C 16,7 C 81 % 0 lf 1017,5 hPa 0,0 l/m 0 min 0 min 73 W/m 16,7 km/h (3 Bft) 95,74 %
19.08.2017 18:52 17,2 C 16,7 C 16,7 C 81 % 0 lf 1017,5 hPa 0,0 l/m 0 min 0 min 74 W/m 18,8 km/h (3 Bft) 93,62 %
19.08.2017 18:54 17,2 C 17,2 C 16,7 C 81 % 0 lf 1017,5 hPa 0,0 l/m 0 min 0 min 83 W/m 18,8 km/h (3 Bft) 91,49 %
19.08.2017 18:56 17,2 C 17,2 C 16,7 C 81 % 0 lf 1017,6 hPa 0,0 l/m 0 min 0 min 100 W/m 18,8 km/h (3 Bft) 89,36 %
19.08.2017 18:58 17,1 C 17,2 C 16,7 C 82 % 0 lf 1017,5 hPa 0,0 l/m 2 min 0 min 153 W/m 16,7 km/h (3 Bft) 95,65 %
19.08.2017 19:00 17,1 C 17,8 C 16,7 C 82 % 0 lf 1017,6 hPa 0,0 l/m 2 min 0 min 190 W/m 14,6 km/h (3 Bft) 97,87 %
19.08.2017 19:02 17,1 C 17,8 C 17,2 C 82 % 0 lf 1017,6 hPa 0,0 l/m 2 min 0 min 179 W/m 14,6 km/h (3 Bft) 97,87 %
19.08.2017 19:04 17,1 C 17,8 C 17,2 C 82 % 0 lf 1017,5 hPa 0,0 l/m 2 min 0 min 214 W/m 14,6 km/h (3 Bft) 95,74 %
19.08.2017 19:06 17,1 C 17,8 C 16,7 C 82 % 0 lf 1017,6 hPa 0,0 l/m 0 min 0 min 100 W/m 16,7 km/h (3 Bft) 95,74 %
19.08.2017 19:08 17,1 C 17,2 C 16,7 C 81 % 0 lf 1017,6 hPa 0,0 l/m 0 min 0 min 75 W/m 18,8 km/h (3 Bft) 97,87 %
19.08.2017 19:10 17,1 C 17,2 C 16,1 C 80 % 0 lf 1017,6 hPa 0,0 l/m 0 min 0 min 63 W/m 18,8 km/h (3 Bft) 95,65 %
19.08.2017 19:12 17,1 C 16,7 C 16,1 C 80 % 0 lf 1017,7 hPa 0,0 l/m 0 min 0 min 61 W/m 14,6 km/h (3 Bft) 95,74 %
19.08.2017 19:14 17,0 C 16,7 C 16,1 C 80 % 0 lf 1017,7 hPa 0,0 l/m 0 min 0 min 70 W/m 10,5 km/h (2 Bft) 95,74 %
19.08.2017 19:16 17,0 C 16,7 C 16,1 C 80 % 0 lf 1017,6 hPa 0,0 l/m 0 min 0 min 75 W/m 14,6 km/h (3 Bft) 95,74 %
19.08.2017 19:18 17,0 C 16,7 C 16,1 C 80 % 0 lf 1017,6 hPa 0,0 l/m 0 min 0 min 72 W/m 10,5 km/h (2 Bft) 97,87 %
19.08.2017 19:20 17,0 C 16,7 C 16,1 C 80 % 0 lf 1017,6 hPa 0,0 l/m 0 min 0 min 67 W/m 10,5 km/h (2 Bft) 97,87 %
19.08.2017 19:22 16,9 C 16,7 C 16,1 C 80 % 0 lf 1017,6 hPa 0,0 l/m 0 min 0 min 65 W/m 10,5 km/h (2 Bft) 100,00 %
19.08.2017 19:24 16,9 C 16,7 C 16,1 C 80 % 0 lf 1017,6 hPa 0,0 l/m 0 min 0 min 61 W/m 12,6 km/h (3 Bft) 100,00 %
19.08.2017 19:26 16,9 C 16,7 C 15,6 C 80 % 0 lf 1017,6 hPa 0,0 l/m 0 min 0 min 58 W/m 12,6 km/h (3 Bft) 100,00 %
19.08.2017 19:28 16,9 C 16,7 C 15,6 C 80 % 0 lf 1017,7 hPa 0,0 l/m 0 min 0 min 60 W/m 10,5 km/h (2 Bft) 97,87 %
19.08.2017 19:30 16,8 C 16,7 C 15,6 C 80 % 0 lf 1017,7 hPa 0,0 l/m 0 min 0 min 57 W/m 16,7 km/h (3 Bft) 93,62 %
19.08.2017 19:32 16,8 C 16,1 C 15,6 C 80 % 0 lf 1017,6 hPa 0,0 l/m 0 min 0 min 54 W/m 16,7 km/h (3 Bft) 97,87 %
19.08.2017 19:34 16,8 C 16,7 C 15,6 C 80 % 0 lf 1017,6 hPa 0,0 l/m 0 min 0 min 53 W/m 12,6 km/h (3 Bft) 100,00 %
19.08.2017 19:36 16,7 C 16,7 C 15,6 C 80 % 0 lf 1017,7 hPa 0,0 l/m 0 min 0 min 51 W/m 10,5 km/h (2 Bft) 95,74 %
19.08.2017 19:38 16,7 C 16,7 C 15,6 C 80 % 0 lf 1017,7 hPa 0,0 l/m 0 min 0 min 46 W/m 12,6 km/h (3 Bft) 97,87 %
19.08.2017 19:40 16,7 C 16,1 C 15,6 C 80 % 0 lf 1017,7 hPa 0,0 l/m 0 min 0 min 44 W/m 10,5 km/h (2 Bft) 100,00 %
19.08.2017 19:42 16,7 C 16,1 C 15,6 C 80 % 0 lf 1017,7 hPa 0,0 l/m 0 min 0 min 42 W/m 12,6 km/h (3 Bft) 100,00 %
19.08.2017 19:44 16,7 C 16,1 C 15,6 C 80 % 0 lf 1017,6 hPa 0,0 l/m 0 min 0 min 42 W/m 10,5 km/h (2 Bft) 97,87 %
19.08.2017 19:46 16,7 C 16,1 C 15,6 C 81 % 0 lf 1017,6 hPa 0,0 l/m 0 min 0 min 42 W/m 10,5 km/h (2 Bft) 97,83 %
19.08.2017 19:48 16,7 C 16,7 C 15,6 C 81 % 0 lf 1017,7 hPa 0,0 l/m 0 min 0 min 44 W/m 8,4 km/h (2 Bft) 100,00 %
19.08.2017 19:50 16,7 C 16,7 C 15,6 C 81 % 0 lf 1017,7 hPa 0,0 l/m 0 min 0 min 46 W/m 14,6 km/h (3 Bft) 100,00 %
19.08.2017 19:52 16,7 C 16,7 C 15,6 C 81 % 0 lf 1017,7 hPa 0,0 l/m 0 min 0 min 46 W/m 8,4 km/h (2 Bft) 97,87 %
19.08.2017 19:54 16,7 C 16,7 C 15,6 C 81 % 0 lf 1017,7 hPa 0,0 l/m 0 min 0 min 48 W/m 8,4 km/h (2 Bft) 97,87 %
19.08.2017 19:56 16,7 C 16,7 C 15,6 C 81 % 0 lf 1017,7 hPa 0,0 l/m 0 min 0 min 53 W/m 14,6 km/h (3 Bft) 93,48 %
19.08.2017 19:58 16,6 C 16,7 C 15,6 C 82 % 0 lf 1017,7 hPa 0,0 l/m 0 min 0 min 50 W/m 12,6 km/h (3 Bft) 97,87 %
19.08.2017 20:00 16,7 C 16,7 C 15,6 C 82 % 0 lf 1017,8 hPa 0,0 l/m 0 min 0 min 49 W/m 12,6 km/h (3 Bft) 97,87 %
19.08.2017 20:02 16,7 C 16,7 C 15,6 C 82 % 0 lf 1017,8 hPa 0,0 l/m 2 min 0 min 54 W/m 16,7 km/h (3 Bft) 97,87 %
19.08.2017 20:04 16,6 C 16,7 C 15,6 C 82 % 0 lf 1017,8 hPa 0,0 l/m 2 min 0 min 57 W/m 10,5 km/h (2 Bft) 97,87 %
19.08.2017 20:06 16,7 C 16,7 C 15,6 C 83 % 0 lf 1017,8 hPa 0,0 l/m 2 min 0 min 54 W/m 14,6 km/h (3 Bft) 95,74 %
19.08.2017 20:08 16,7 C 16,7 C 15,6 C 83 % 0 lf 1017,8 hPa 0,0 l/m 2 min 0 min 53 W/m 16,7 km/h (3 Bft) 93,48 %
19.08.2017 20:10 16,6 C 16,1 C 15,6 C 83 % 0 lf 1017,9 hPa 0,0 l/m 2 min 0 min 52 W/m 16,7 km/h (3 Bft) 95,74 %
19.08.2017 20:12 16,6 C 16,1 C 15,6 C 83 % 0 lf 1017,9 hPa 0,0 l/m 2 min 0 min 48 W/m 8,4 km/h (2 Bft) 97,87 %
19.08.2017 20:14 16,6 C 16,1 C 15,6 C 83 % 0 lf 1018,0 hPa 0,0 l/m 2 min 0 min 44 W/m 14,6 km/h (3 Bft) 97,87 %
19.08.2017 20:16 16,6 C 16,1 C 15,6 C 84 % 0 lf 1018,0 hPa 0,0 l/m 2 min 0 min 40 W/m 14,6 km/h (3 Bft) 97,87 %
19.08.2017 20:18 16,6 C 16,1 C 15,0 C 84 % 0 lf 1018,0 hPa 0,0 l/m 2 min 0 min 34 W/m 14,6 km/h (3 Bft) 95,74 %
19.08.2017 20:20 16,6 C 16,1 C 15,0 C 84 % 0 lf 1018,0 hPa 0,0 l/m 2 min 0 min 28 W/m 14,6 km/h (3 Bft) 91,49 %
19.08.2017 20:22 16,5 C 16,1 C 15,0 C 84 % 0 lf 1018,0 hPa 0,0 l/m 2 min 0 min 26 W/m 6,3 km/h (2 Bft) 100,00 %
19.08.2017 20:24 16,5 C 15,6 C 15,0 C 84 % 0 lf 1018,0 hPa 0,0 l/m 2 min 0 min 24 W/m 12,6 km/h (3 Bft) 97,87 %
19.08.2017 20:26 16,5 C 15,6 C 14,4 C 84 % 0 lf 1018,0 hPa 0,0 l/m 0 min 0 min 20 W/m 14,6 km/h (3 Bft) 93,62 %
19.08.2017 20:28 16,4 C 15,6 C 14,4 C 84 % 0 lf 1018,0 hPa 0,0 l/m 0 min 0 min 19 W/m 8,4 km/h (2 Bft) 97,87 %
19.08.2017 20:30 16,4 C 15,6 C 14,4 C 84 % 0 lf 1018,0 hPa 0,0 l/m 0 min 0 min 17 W/m 10,5 km/h (2 Bft) 93,62 %
19.08.2017 20:32 16,4 C 15,6 C 14,4 C 84 % 0 lf 1018,0 hPa 0,0 l/m 0 min 0 min 15 W/m 12,6 km/h (3 Bft) 97,83 %
19.08.2017 20:34 16,4 C 15,6 C 14,4 C 84 % 0 lf 1018,1 hPa 0,0 l/m 0 min 0 min 14 W/m 10,5 km/h (2 Bft) 100,00 %
19.08.2017 20:36 16,3 C 15,6 C 13,9 C 84 % 0 lf 1018,1 hPa 0,0 l/m 0 min 0 min 13 W/m 8,4 km/h (2 Bft) 95,74 %
19.08.2017 20:38 16,3 C 15,0 C 13,9 C 84 % 0 lf 1018,1 hPa 0,0 l/m 0 min 0 min 12 W/m 10,5 km/h (2 Bft) 95,74 %
19.08.2017 20:40 16,3 C 15,0 C 13,9 C 84 % 0 lf 1018,1 hPa 0,0 l/m 0 min 0 min 11 W/m 8,4 km/h (2 Bft) 97,87 %
19.08.2017 20:42 16,2 C 15,0 C 13,9 C 85 % 0 lf 1018,2 hPa 0,0 l/m 0 min 0 min 10 W/m 8,4 km/h (2 Bft) 97,87 %
19.08.2017 20:44 16,2 C 15,0 C 13,9 C 85 % 0 lf 1018,2 hPa 0,0 l/m 0 min 0 min 8 W/m 10,5 km/h (2 Bft) 97,83 %
19.08.2017 20:46 16,2 C 15,0 C 13,9 C 85 % 0 lf 1018,3 hPa 0,0 l/m 0 min 0 min 7 W/m 10,5 km/h (2 Bft) 97,87 %
19.08.2017 20:48 16,1 C 15,0 C 13,9 C 85 % 0 lf 1018,3 hPa 0,0 l/m 0 min 0 min 7 W/m 6,3 km/h (2 Bft) 97,87 %
19.08.2017 20:50 16,1 C 14,4 C 13,3 C 85 % 0 lf 1018,3 hPa 0,0 l/m 0 min 0 min 5 W/m 8,4 km/h (2 Bft) 97,87 %
19.08.2017 20:52 16,0 C 14,4 C 13,3 C 85 % 0 lf 1018,3 hPa 0,0 l/m 0 min 0 min 5 W/m 6,3 km/h (2 Bft) 95,74 %
19.08.2017 20:54 16,0 C 14,4 C 13,3 C 85 % 0 lf 1018,4 hPa 0,0 l/m 0 min 0 min 0 W/m 8,4 km/h (2 Bft) 93,62 %
19.08.2017 20:56 15,9 C 14,4 C 13,3 C 85 % 0 lf 1018,4 hPa 0,0 l/m 0 min 0 min 0 W/m 8,4 km/h (2 Bft) 97,83 %
19.08.2017 20:58 15,9 C 14,4 C 13,3 C 85 % 0 lf 1018,4 hPa 0,0 l/m 0 min 0 min 0 W/m 8,4 km/h (2 Bft) 97,87 %
19.08.2017 21:00 15,9 C 14,4 C 13,3 C 85 % 0 lf 1018,4 hPa 0,0 l/m 0 min 0 min 0 W/m 8,4 km/h (2 Bft) 95,74 %
19.08.2017 21:02 15,8 C 14,4 C 13,3 C 85 % 0 lf 1018,4 hPa 0,0 l/m 0 min 0 min 0 W/m 8,4 km/h (2 Bft) 93,62 %
19.08.2017 21:04 15,8 C 14,4 C 13,3 C 85 % 0 lf 1018,4 hPa 0,0 l/m 0 min 0 min 0 W/m 8,4 km/h (2 Bft) 91,49 %
19.08.2017 21:06 15,8 C 14,4 C 13,3 C 85 % 0 lf 1018,4 hPa 0,0 l/m 0 min 0 min 0 W/m 6,3 km/h (2 Bft) 91,49 %
19.08.2017 21:08 15,7 C 14,4 C 13,3 C 85 % 0 lf 1018,4 hPa 0,0 l/m 0 min 0 min 0 W/m 8,4 km/h (2 Bft) 93,48 %
19.08.2017 21:10 15,7 C 14,4 C 13,3 C 86 % 0 lf 1018,5 hPa 0,0 l/m 0 min 0 min 0 W/m 6,3 km/h (2 Bft) 97,87 %
19.08.2017 21:12 15,7 C 14,4 C 13,9 C 86 % 0 lf 1018,5 hPa 0,0 l/m 0 min 0 min 0 W/m 8,4 km/h (2 Bft) 93,62 %
19.08.2017 21:14 15,6 C 14,4 C 13,9 C 86 % 0 lf 1018,5 hPa 0,0 l/m 0 min 0 min 0 W/m 10,5 km/h (2 Bft) 93,62 %
19.08.2017 21:16 15,6 C 14,4 C 13,9 C 86 % 0 lf 1018,5 hPa 0,0 l/m 0 min 0 min 0 W/m 8,4 km/h (2 Bft) 93,62 %
19.08.2017 21:18 15,6 C 14,4 C 13,9 C 86 % 0 lf 1018,5 hPa 0,0 l/m 0 min 0 min 0 W/m 8,4 km/h (2 Bft) 95,74 %
19.08.2017 21:20 15,5 C 14,4 C 13,9 C 86 % 0 lf 1018,6 hPa 0,0 l/m 0 min 0 min 0 W/m 10,5 km/h (2 Bft) 95,65 %
19.08.2017 21:22 15,5 C 15,0 C 13,9 C 87 % 0 lf 1018,5 hPa 0,0 l/m 0 min 0 min 0 W/m 10,5 km/h (2 Bft) 93,62 %
19.08.2017 21:24 15,5 C 14,4 C 13,9 C 87 % 0 lf 1018,5 hPa 0,0 l/m 0 min 0 min 0 W/m 10,5 km/h (2 Bft) 95,74 %
19.08.2017 21:26 15,4 C 14,4 C 13,9 C 87 % 0 lf 1018,6 hPa 0,0 l/m 0 min 0 min 0 W/m 12,6 km/h (3 Bft) 95,74 %
19.08.2017 21:28 15,4 C 15,0 C 13,9 C 87 % 0 lf 1018,5 hPa 0,0 l/m 0 min 0 min 0 W/m 10,5 km/h (2 Bft) 97,87 %
19.08.2017 21:30 15,4 C 15,0 C 13,9 C 87 % 0 lf 1018,6 hPa 0,0 l/m 0 min 0 min 0 W/m 10,5 km/h (2 Bft) 95,74 %
19.08.2017 21:32 15,4 C 15,0 C 13,9 C 87 % 0 lf 1018,6 hPa 0,0 l/m 0 min 0 min 0 W/m 8,4 km/h (2 Bft) 97,83 %
19.08.2017 21:34 15,4 C 15,0 C 13,9 C 87 % 0 lf 1018,6 hPa 0,0 l/m 0 min 0 min 0 W/m 6,3 km/h (2 Bft) 95,74 %
19.08.2017 21:36 15,4 C 15,0 C 13,9 C 88 % 0 lf 1018,6 hPa 0,0 l/m 0 min 0 min 0 W/m 6,3 km/h (2 Bft) 100,00 %
19.08.2017 21:38 15,4 C 15,0 C 13,9 C 88 % 0 lf 1018,6 hPa 0,0 l/m 0 min 0 min 0 W/m 6,3 km/h (2 Bft) 95,74 %
19.08.2017 21:40 15,4 C 15,0 C 13,9 C 88 % 0 lf 1018,6 hPa 0,0 l/m 0 min 0 min 0 W/m 6,3 km/h (2 Bft) 97,87 %
19.08.2017 21:42 15,3 C 15,0 C 13,9 C 88 % 0 lf 1018,6 hPa 0,0 l/m 0 min 0 min 0 W/m 12,6 km/h (3 Bft) 95,74 %
19.08.2017 21:44 15,3 C 15,0 C 13,9 C 88 % 0 lf 1018,7 hPa 0,0 l/m 0 min 0 min 0 W/m 10,5 km/h (2 Bft) 95,65 %
19.08.2017 21:46 15,3 C 15,0 C 13,9 C 88 % 0 lf 1018,6 hPa 0,0 l/m 0 min 0 min 0 W/m 6,3 km/h (2 Bft) 93,62 %
19.08.2017 21:48 15,3 C 15,0 C 13,9 C 89 % 0 lf 1018,7 hPa 0,0 l/m 0 min 0 min 0 W/m 8,4 km/h (2 Bft) 97,87 %
19.08.2017 21:50 15,3 C 15,0 C 13,9 C 89 % 0 lf 1018,7 hPa 0,0 l/m 0 min 0 min 0 W/m 10,5 km/h (2 Bft) 97,87 %
19.08.2017 21:52 15,3 C 15,0 C 13,9 C 89 % 0 lf 1018,7 hPa 0,0 l/m 0 min 0 min 0 W/m 8,4 km/h (2 Bft) 97,87 %
19.08.2017 21:54 15,3 C 15,0 C 13,9 C 89 % 0 lf 1018,8 hPa 0,0 l/m 0 min 0 min 0 W/m 8,4 km/h (2 Bft) 100,00 %
19.08.2017 21:56 15,3 C 15,0 C 13,3 C 89 % 0 lf 1018,8 hPa 0,0 l/m 0 min 0 min 0 W/m 8,4 km/h (2 Bft) 97,87 %
19.08.2017 21:58 15,3 C 14,4 C 13,3 C 89 % 0 lf 1018,9 hPa 0,0 l/m 0 min 0 min 0 W/m 8,4 km/h (2 Bft) 97,87 %
19.08.2017 22:00 15,3 C 14,4 C 13,3 C 89 % 0 lf 1018,9 hPa 0,0 l/m 0 min 0 min 0 W/m 10,5 km/h (2 Bft) 91,49 %
19.08.2017 22:02 15,3 C 14,4 C 13,3 C 89 % 0 lf 1018,9 hPa 0,0 l/m 0 min 0 min 0 W/m 6,3 km/h (2 Bft) 93,62 %
19.08.2017 22:04 15,3 C 14,4 C 13,3 C 89 % 0 lf 1018,9 hPa 0,0 l/m 0 min 0 min 0 W/m 10,5 km/h (2 Bft) 95,74 %
19.08.2017 22:06 15,3 C 14,4 C 13,3 C 89 % 0 lf 1018,9 hPa 0,0 l/m 0 min 0 min 0 W/m 8,4 km/h (2 Bft) 95,65 %
19.08.2017 22:08 15,2 C 14,4 C 13,3 C 89 % 0 lf 1018,9 hPa 0,0 l/m 0 min 0 min 0 W/m 6,3 km/h (2 Bft) 95,74 %
19.08.2017 22:10 15,2 C 14,4 C 13,3 C 89 % 0 lf 1018,9 hPa 0,0 l/m 0 min 0 min 0 W/m 10,5 km/h (2 Bft) 91,49 %
19.08.2017 22:12 15,2 C 14,4 C 13,3 C 89 % 0 lf 1018,8 hPa 0,0 l/m 0 min 0 min 0 W/m 6,3 km/h (2 Bft) 95,74 %
19.08.2017 22:14 15,2 C 14,4 C 12,8 C 89 % 1 lf 1018,8 hPa 0,0 l/m 0 min 0 min 0 W/m 6,3 km/h (2 Bft) 95,74 %
19.08.2017 22:16 15,2 C 14,4 C 12,8 C 89 % 1 lf 1018,8 hPa 0,0 l/m 0 min 0 min 0 W/m 8,4 km/h (2 Bft) 93,62 %
19.08.2017 22:18 15,2 C 14,4 C 12,8 C 89 % 1 lf 1018,8 hPa 0,0 l/m 0 min 0 min 0 W/m 10,5 km/h (2 Bft) 95,65 %
19.08.2017 22:20 15,1 C 14,4 C 12,8 C 89 % 1 lf 1018,8 hPa 0,0 l/m 0 min 0 min 0 W/m 10,5 km/h (2 Bft) 95,74 %
19.08.2017 22:22 15,1 C 14,4 C 12,8 C 89 % 1 lf 1018,8 hPa 0,0 l/m 0 min 0 min 0 W/m 10,5 km/h (2 Bft) 95,74 %
19.08.2017 22:24 15,1 C 14,4 C 12,8 C 89 % 1 lf 1018,8 hPa 0,0 l/m 0 min 0 min 0 W/m 6,3 km/h (2 Bft) 95,74 %
19.08.2017 22:26 15,1 C 13,9 C 12,8 C 89 % 1 lf 1018,9 hPa 0,0 l/m 0 min 0 min 0 W/m 4,2 km/h (1 Bft) 97,87 %
19.08.2017 22:28 15,1 C 13,9 C 12,8 C 89 % 1 lf 1018,9 hPa 0,0 l/m 0 min 0 min 0 W/m 8,4 km/h (2 Bft) 95,74 %
19.08.2017 22:30 15,1 C 13,9 C 12,8 C 89 % 1 lf 1018,9 hPa 0,0 l/m 0 min 0 min 0 W/m 6,3 km/h (2 Bft) 95,65 %
19.08.2017 22:32 15,0 C 14,4 C 12,8 C 89 % 1 lf 1018,8 hPa 0,0 l/m 0 min 0 min 0 W/m 6,3 km/h (2 Bft) 97,87 %
19.08.2017 22:34 15,0 C 14,4 C 12,8 C 89 % 1 lf 1018,9 hPa 0,0 l/m 0 min 0 min 0 W/m 8,4 km/h (2 Bft) 95,74 %
19.08.2017 22:36 15,0 C 14,4 C 12,8 C 89 % 1 lf 1018,9 hPa 0,0 l/m 0 min 0 min 0 W/m 10,5 km/h (2 Bft) 97,87 %
19.08.2017 22:38 14,9 C 13,9 C 12,8 C 90 % 1 lf 1018,9 hPa 0,0 l/m 0 min 0 min 0 W/m 8,4 km/h (2 Bft) 97,87 %
19.08.2017 22:40 14,9 C 13,9 C 12,8 C 90 % 1 lf 1018,9 hPa 0,0 l/m 0 min 0 min 0 W/m 10,5 km/h (2 Bft) 95,74 %
19.08.2017 22:42 14,9 C 13,9 C 12,8 C 89 % 1 lf 1018,9 hPa 0,0 l/m 0 min 0 min 0 W/m 10,5 km/h (2 Bft) 97,83 %
19.08.2017 22:44 14,9 C 13,9 C 12,8 C 89 % 1 lf 1018,9 hPa 0,0 l/m 0 min 0 min 0 W/m 8,4 km/h (2 Bft) 95,74 %
19.08.2017 22:46 14,9 C 13,9 C 12,8 C 90 % 1 lf 1018,9 hPa 0,0 l/m 0 min 0 min 0 W/m 8,4 km/h (2 Bft) 97,87 %
19.08.2017 22:48 14,9 C 13,9 C 12,8 C 90 % 1 lf 1018,9 hPa 0,0 l/m 0 min 0 min 0 W/m 12,6 km/h (3 Bft) 97,87 %
19.08.2017 22:50 14,8 C 13,9 C 12,8 C 90 % 1 lf 1019,0 hPa 0,0 l/m 0 min 0 min 0 W/m 6,3 km/h (2 Bft) 97,87 %
19.08.2017 22:52 14,8 C 13,9 C 12,8 C 90 % 1 lf 1018,9 hPa 0,0 l/m 0 min 0 min 0 W/m 6,3 km/h (2 Bft) 95,74 %
19.08.2017 22:54 14,8 C 13,9 C 12,8 C 90 % 1 lf 1018,9 hPa 0,0 l/m 0 min 0 min 0 W/m 14,6 km/h (3 Bft) 97,83 %
19.08.2017 22:56 14,8 C 13,9 C 12,8 C 90 % 1 lf 1018,9 hPa 0,0 l/m 0 min 0 min 0 W/m 8,4 km/h (2 Bft) 95,74 %
19.08.2017 22:58 14,8 C 13,9 C 12,8 C 90 % 1 lf 1018,9 hPa 0,0 l/m 0 min 0 min 0 W/m 8,4 km/h (2 Bft) 95,74 %
19.08.2017 23:00 14,7 C 13,9 C 12,8 C 90 % 1 lf 1019,0 hPa 0,0 l/m 0 min 0 min 0 W/m 6,3 km/h (2 Bft) 95,74 %
19.08.2017 23:02 14,7 C 13,9 C 12,8 C 90 % 1 lf 1019,0 hPa 0,0 l/m 0 min 0 min 0 W/m 10,5 km/h (2 Bft) 95,74 %
19.08.2017 23:04 14,7 C 13,9 C 12,8 C 90 % 1 lf 1018,9 hPa 0,0 l/m 0 min 0 min 0 W/m 8,4 km/h (2 Bft) 100,00 %
19.08.2017 23:06 14,7 C 13,9 C 12,8 C 90 % 1 lf 1019,0 hPa 0,0 l/m 0 min 0 min 0 W/m 12,6 km/h (3 Bft) 100,00 %
19.08.2017 23:08 14,7 C 13,9 C 12,8 C 90 % 1 lf 1019,0 hPa 0,0 l/m 0 min 0 min 0 W/m 8,4 km/h (2 Bft) 100,00 %
19.08.2017 23:10 14,7 C 13,9 C 13,3 C 90 % 1 lf 1019,0 hPa 0,0 l/m 0 min 0 min 0 W/m 12,6 km/h (3 Bft) 97,87 %
19.08.2017 23:12 14,6 C 13,9 C 13,3 C 90 % 1 lf 1019,0 hPa 0,0 l/m 0 min 0 min 0 W/m 10,5 km/h (2 Bft) 97,87 %
19.08.2017 23:14 14,6 C 13,9 C 13,3 C 90 % 1 lf 1019,0 hPa 0,0 l/m 0 min 0 min 0 W/m 10,5 km/h (2 Bft) 100,00 %
19.08.2017 23:16 14,6 C 14,4 C 13,3 C 90 % 1 lf 1019,0 hPa 0,0 l/m 0 min 0 min 0 W/m 10,5 km/h (2 Bft) 97,83 %
19.08.2017 23:18 14,6 C 14,4 C 13,3 C 91 % 1 lf 1019,0 hPa 0,0 l/m 0 min 0 min 0 W/m 12,6 km/h (3 Bft) 100,00 %
19.08.2017 23:20 14,6 C 14,4 C 13,3 C 91 % 1 lf 1019,0 hPa 0,0 l/m 0 min 0 min 0 W/m 12,6 km/h (3 Bft) 100,00 %
19.08.2017 23:22 14,6 C 14,4 C 13,3 C 91 % 1 lf 1019,0 hPa 0,0 l/m 0 min 0 min 0 W/m 12,6 km/h (3 Bft) 97,87 %
19.08.2017 23:24 14,6 C 14,4 C 13,3 C 91 % 1 lf 1019,0 hPa 0,0 l/m 0 min 0 min 0 W/m 14,6 km/h (3 Bft) 100,00 %
19.08.2017 23:26 14,6 C 14,4 C 13,3 C 91 % 1 lf 1019,1 hPa 0,0 l/m 0 min 0 min 0 W/m 8,4 km/h (2 Bft) 97,87 %
19.08.2017 23:28 14,6 C 14,4 C 13,3 C 91 % 1 lf 1019,1 hPa 0,0 l/m 0 min 0 min 0 W/m 8,4 km/h (2 Bft) 93,48 %
19.08.2017 23:30 14,6 C 14,4 C 13,3 C 91 % 0 lf 1019,1 hPa 0,0 l/m 0 min 0 min 0 W/m 10,5 km/h (2 Bft) 97,87 %
19.08.2017 23:32 14,6 C 14,4 C 13,3 C 91 % 0 lf 1019,0 hPa 0,0 l/m 0 min 0 min 0 W/m 12,6 km/h (3 Bft) 95,74 %
19.08.2017 23:34 14,6 C 14,4 C 13,3 C 91 % 0 lf 1019,0 hPa 0,0 l/m 0 min 0 min 0 W/m 12,6 km/h (3 Bft) 97,87 %
19.08.2017 23:36 14,6 C 14,4 C 13,3 C 91 % 0 lf 1019,0 hPa 0,0 l/m 0 min 0 min 0 W/m 12,6 km/h (3 Bft) 95,74 %
19.08.2017 23:38 14,6 C 14,4 C 13,3 C 91 % 0 lf 1019,0 hPa 0,0 l/m 0 min 0 min 0 W/m 12,6 km/h (3 Bft) 93,62 %
19.08.2017 23:40 14,7 C 14,4 C 13,3 C 91 % 0 lf 1019,0 hPa 0,0 l/m 0 min 0 min 0 W/m 10,5 km/h (2 Bft) 97,83 %
19.08.2017 23:42 14,6 C 14,4 C 13,3 C 91 % 0 lf 1019,0 hPa 0,0 l/m 0 min 0 min 0 W/m 10,5 km/h (2 Bft) 97,87 %
19.08.2017 23:44 14,6 C 14,4 C 13,3 C 91 % 0 lf 1019,0 hPa 0,0 l/m 0 min 0 min 0 W/m 12,6 km/h (3 Bft) 97,87 %
19.08.2017 23:46 14,7 C 14,4 C 13,3 C 91 % 0 lf 1019,1 hPa 0,0 l/m 0 min 0 min 0 W/m 12,6 km/h (3 Bft) 91,49 %
19.08.2017 23:48 14,6 C 14,4 C 13,3 C 91 % 1 lf 1019,1 hPa 0,0 l/m 0 min 0 min 0 W/m 6,3 km/h (2 Bft) 95,74 %
19.08.2017 23:50 14,6 C 14,4 C 13,3 C 91 % 1 lf 1019,1 hPa 0,0 l/m 0 min 0 min 0 W/m 12,6 km/h (3 Bft) 97,87 %
19.08.2017 23:52 14,6 C 14,4 C 13,3 C 91 % 1 lf 1019,1 hPa 0,0 l/m 0 min 0 min 0 W/m 12,6 km/h (3 Bft) 93,48 %
19.08.2017 23:54 14,6 C 13,9 C 12,8 C 91 % 1 lf 1019,1 hPa 0,0 l/m 0 min 0 min 0 W/m 10,5 km/h (2 Bft) 91,49 %
19.08.2017 23:56 14,6 C 13,9 C 12,8 C 91 % 1 lf 1019,0 hPa 0,0 l/m 0 min 0 min 0 W/m 8,4 km/h (2 Bft) 91,49 %
19.08.2017 23:58 14,6 C 13,9 C 12,8 C 91 % 1 lf 1019,0 hPa 0,0 l/m 0 min 0 min 0 W/m 14,6 km/h (3 Bft) 87,23 %
_ Min-Zeit 06:26 03:30 02:56 14:06 07:56 00:00 - - - - 22:26 00:02
Minimum _ 12,2 C 11,7 C 10,6 C 66 % 0 lf 1012,9 hPa - - - - 4,2 km/h (1 Bft) 11,76 %
_ Max-Zeit 15:50 13:02 14:56 00:00 00:00 23:26 04:18 12:07 09:36 13:16 10:54 00:44
Maximum _ 20,6 C 27,8 C 26,7 C 94 % 15 lf 1019,1 hPa 0,2 l/m 3 min 2 min 1002 W/m 41,8 km/h
W (6 Bft)
100,00 %
Durchschnitt _ 15,5 C 16,4 C 15,0 C 85 % 2 lf 1015,9 hPa #0,4 l/m #6:10 h #36 min. 214 W/m 18,9 km/h (3 Bft) 96,23 %
© 2017 W. Hausmann